Time,TemperatureF,DewpointF,PressureIn,WindDirection,WindDirectionDegrees,WindSpeedMPH,WindSpeedGustMPH,Humidity,HourlyPrecipIn,Conditions,Clouds,dailyrainin,SolarRadiationWatts/m^2,SoftwareType,DateUTC
2013-05-23 00:00:00,62.4,59.4,29.72,WSW,252,0.0,1.0,90,0.00,,,0.03,0.00,VWS V14.01,2013-05-23 04:00:00,
2013-05-23 00:01:00,62.4,59.4,29.72,WSW,252,0.0,2.0,90,0.00,,,0.03,0.00,VWS V14.01,2013-05-23 04:01:00,
2013-05-23 00:06:00,62.5,59.5,29.72,WSW,253,3.0,3.0,90,0.00,,,0.00,0.00,VWS V14.01,2013-05-23 04:06:00,
2013-05-23 00:11:00,62.6,59.6,29.72,WSW,253,0.0,2.0,90,0.00,,,0.00,0.00,VWS V14.01,2013-05-23 04:11:00,
2013-05-23 00:16:00,62.6,59.6,29.71,WSW,253,0.0,0.0,90,0.00,,,0.00,0.00,VWS V14.01,2013-05-23 04:16:00,
2013-05-23 00:21:00,62.8,59.5,29.72,WSW,258,0.0,0.0,89,0.00,,,0.00,0.00,VWS V14.01,2013-05-23 04:21:00,
2013-05-23 00:26:00,63.0,59.4,29.72,WSW,258,2.0,3.0,88,0.00,,,0.00,0.00,VWS V14.01,2013-05-23 04:26:00,
2013-05-23 00:31:00,63.3,59.4,29.72,WSW,258,0.0,0.0,87,0.00,,,0.00,0.00,VWS V14.01,2013-05-23 04:31:00,
2013-05-23 00:36:00,63.4,59.2,29.72,WSW,258,0.0,0.0,86,0.00,,,0.00,0.00,VWS V14.01,2013-05-23 04:36:00,
2013-05-23 00:37:00,63.4,59.5,29.72,WSW,258,0.0,1.0,87,0.00,,,0.00,0.00,VWS V14.01,2013-05-23 04:37:00,
2013-05-23 00:41:00,63.5,59.2,29.72,West,270,0.0,0.0,86,0.00,,,0.00,0.00,VWS V14.01,2013-05-23 04:41:00,
2013-05-23 00:42:00,63.5,59.2,29.72,West,270,2.0,2.0,86,0.00,,,0.00,0.00,VWS V14.01,2013-05-23 04:42:00,
2013-05-23 00:46:00,63.6,59.3,29.72,West,275,2.0,3.0,86,0.00,,,0.00,0.00,VWS V14.01,2013-05-23 04:46:00,
2013-05-23 00:47:00,63.6,59.3,29.72,West,275,0.0,3.0,86,0.00,,,0.00,0.00,VWS V14.01,2013-05-23 04:47:00,
2013-05-23 00:51:00,63.7,59.4,29.72,West,275,0.0,1.0,86,0.00,,,0.00,0.00,VWS V14.01,2013-05-23 04:51:00,
2013-05-23 00:52:00,63.6,59.3,29.72,West,275,0.0,1.0,86,0.00,,,0.00,0.00,VWS V14.01,2013-05-23 04:52:00,
2013-05-23 00:56:00,63.6,59.0,29.72,West,275,0.0,0.0,85,0.00,,,0.00,0.00,VWS V14.01,2013-05-23 04:56:00,
2013-05-23 00:57:00,63.6,59.3,29.72,West,275,0.0,0.0,86,0.00,,,0.00,0.00,VWS V14.01,2013-05-23 04:57:00,
2013-05-23 01:01:00,63.5,59.2,29.72,West,275,0.0,1.0,86,0.00,,,0.00,0.00,VWS V14.01,2013-05-23 05:01:00,
2013-05-23 01:02:00,63.5,59.2,29.72,West,275,0.0,1.0,86,0.00,,,0.00,0.00,VWS V14.01,2013-05-23 05:02:00,
2013-05-23 01:06:00,63.4,59.2,29.72,West,275,0.0,1.0,86,0.00,,,0.00,0.00,VWS V14.01,2013-05-23 05:06:00,
2013-05-23 01:07:00,63.4,59.2,29.72,West,275,0.0,0.0,86,0.00,,,0.00,0.00,VWS V14.01,2013-05-23 05:07:00,
2013-05-23 01:11:00,63.3,59.0,29.72,West,275,0.0,4.0,86,0.00,,,0.00,0.00,VWS V14.01,2013-05-23 05:11:00,
2013-05-23 01:12:00,63.3,59.0,29.72,West,275,2.0,2.0,86,0.00,,,0.00,0.00,VWS V14.01,2013-05-23 05:12:00,
2013-05-23 01:17:00,63.2,59.0,29.72,West,275,1.0,1.0,86,0.00,,,0.00,0.00,VWS V14.01,2013-05-23 05:17:00,
2013-05-23 01:22:00,63.2,59.3,29.72,West,275,0.0,1.0,87,0.00,,,0.00,0.00,VWS V14.01,2013-05-23 05:22:00,
2013-05-23 01:27:00,63.1,59.2,29.72,West,275,1.0,1.0,87,0.00,,,0.00,0.00,VWS V14.01,2013-05-23 05:27:00,
2013-05-23 01:28:00,63.2,59.3,29.72,West,275,0.0,2.0,87,0.00,,,0.00,0.00,VWS V14.01,2013-05-23 05:28:00,
2013-05-23 01:32:00,63.2,59.3,29.72,West,275,0.0,1.0,87,0.00,,,0.00,0.00,VWS V14.01,2013-05-23 05:32:00,
2013-05-23 01:33:00,63.2,59.3,29.72,West,275,0.0,0.0,87,0.00,,,0.00,0.00,VWS V14.01,2013-05-23 05:33:00,
2013-05-23 01:37:00,63.2,59.3,29.72,West,277,0.0,3.0,87,0.00,,,0.00,0.00,VWS V14.01,2013-05-23 05:37:00,
2013-05-23 01:38:00,63.2,59.3,29.72,West,277,1.0,1.0,87,0.00,,,0.00,0.00,VWS V14.01,2013-05-23 05:38:00,
2013-05-23 01:42:00,63.2,59.3,29.72,West,275,0.0,0.0,87,0.00,,,0.00,0.00,VWS V14.01,2013-05-23 05:42:00,
2013-05-23 01:43:00,63.2,59.3,29.72,West,275,0.0,2.0,87,0.00,,,0.00,0.00,VWS V14.01,2013-05-23 05:43:00,
2013-05-23 01:47:00,63.3,59.4,29.72,West,275,0.0,0.0,87,0.00,,,0.00,0.00,VWS V14.01,2013-05-23 05:47:00,
2013-05-23 01:48:00,63.2,59.3,29.72,West,272,1.0,1.0,87,0.00,,,0.00,0.00,VWS V14.01,2013-05-23 05:48:00,
2013-05-23 01:52:00,63.3,59.4,29.72,West,277,2.0,2.0,87,0.00,,,0.00,0.00,VWS V14.01,2013-05-23 05:52:00,
2013-05-23 01:53:00,63.2,59.3,29.72,West,277,0.0,0.0,87,0.00,,,0.00,0.00,VWS V14.01,2013-05-23 05:53:00,
2013-05-23 01:57:00,63.2,59.3,29.72,West,277,0.0,1.0,87,0.00,,,0.00,0.00,VWS V14.01,2013-05-23 05:57:00,
2013-05-23 01:58:00,63.2,59.3,29.72,West,277,0.0,0.0,87,0.00,,,0.00,0.00,VWS V14.01,2013-05-23 05:58:00,
2013-05-23 02:02:00,63.3,59.4,29.72,West,277,4.0,4.0,87,0.00,,,0.00,0.00,VWS V14.01,2013-05-23 06:02:00,
2013-05-23 02:03:00,63.3,59.4,29.72,West,277,0.0,4.0,87,0.00,,,0.00,0.00,VWS V14.01,2013-05-23 06:03:00,
2013-05-23 02:07:00,63.2,59.3,29.72,West,277,0.0,1.0,87,0.00,,,0.00,0.00,VWS V14.01,2013-05-23 06:07:00,
2013-05-23 02:08:00,63.2,59.3,29.72,West,277,0.0,1.0,87,0.00,,,0.00,0.00,VWS V14.01,2013-05-23 06:08:00,
2013-05-23 02:12:00,63.2,59.3,29.72,West,277,0.0,0.0,87,0.00,,,0.00,0.00,VWS V14.01,2013-05-23 06:12:00,
2013-05-23 02:13:00,63.2,59.3,29.72,West,277,0.0,0.0,87,0.00,,,0.00,0.00,VWS V14.01,2013-05-23 06:13:00,
2013-05-23 02:17:00,63.2,59.3,29.72,West,277,0.0,0.0,87,0.00,,,0.00,0.00,VWS V14.01,2013-05-23 06:17:00,
2013-05-23 02:18:00,63.2,59.3,29.72,West,277,0.0,0.0,87,0.00,,,0.00,0.00,VWS V14.01,2013-05-23 06:18:00,
2013-05-23 02:19:00,63.2,59.3,29.72,West,277,1.0,2.0,87,0.00,,,0.00,0.00,VWS V14.01,2013-05-23 06:19:00,
2013-05-23 02:22:00,63.1,59.2,29.72,West,277,2.0,4.0,87,0.00,,,0.00,0.00,VWS V14.01,2013-05-23 06:22:00,
2013-05-23 02:23:00,63.1,59.2,29.72,West,277,3.0,3.0,87,0.00,,,0.00,0.00,VWS V14.01,2013-05-23 06:23:00,
2013-05-23 02:24:00,63.1,59.5,29.72,West,277,0.0,3.0,88,0.00,,,0.00,0.00,VWS V14.01,2013-05-23 06:24:00,
2013-05-23 02:27:00,63.1,59.5,29.72,West,277,0.0,1.0,88,0.00,,,0.00,0.00,VWS V14.01,2013-05-23 06:27:00,
2013-05-23 02:28:00,63.1,59.5,29.72,West,277,0.0,1.0,88,0.00,,,0.00,0.00,VWS V14.01,2013-05-23 06:28:00,
2013-05-23 02:29:00,63.1,59.5,29.72,West,277,0.0,1.0,88,0.00,,,0.00,0.00,VWS V14.01,2013-05-23 06:29:00,
2013-05-23 02:32:00,63.0,59.4,29.72,West,277,0.0,3.0,88,0.00,,,0.00,0.00,VWS V14.01,2013-05-23 06:32:00,
2013-05-23 02:33:00,63.0,59.4,29.72,West,277,1.0,3.0,88,0.00,,,0.00,0.00,VWS V14.01,2013-05-23 06:33:00,
2013-05-23 02:34:00,63.0,59.4,29.72,West,277,0.0,3.0,88,0.00,,,0.00,0.00,VWS V14.01,2013-05-23 06:34:00,
2013-05-23 02:37:00,62.9,59.3,29.72,West,277,0.0,1.0,88,0.00,,,0.00,0.00,VWS V14.01,2013-05-23 06:37:00,
2013-05-23 02:38:00,62.9,59.3,29.72,West,277,1.0,1.0,88,0.00,,,0.00,0.00,VWS V14.01,2013-05-23 06:38:00,
2013-05-23 02:39:00,62.9,59.3,29.72,West,277,0.0,1.0,88,0.00,,,0.00,0.00,VWS V14.01,2013-05-23 06:39:00,
2013-05-23 02:42:00,62.9,59.3,29.72,West,276,2.0,2.0,88,0.00,,,0.00,0.00,VWS V14.01,2013-05-23 06:42:00,
2013-05-23 02:43:00,62.9,59.3,29.72,West,276,1.0,2.0,88,0.00,,,0.00,0.00,VWS V14.01,2013-05-23 06:43:00,
2013-05-23 02:44:00,62.9,59.3,29.72,West,276,0.0,2.0,88,0.00,,,0.00,0.00,VWS V14.01,2013-05-23 06:44:00,
2013-05-23 02:47:00,62.8,59.2,29.72,West,276,3.0,4.0,88,0.00,,,0.00,0.00,VWS V14.01,2013-05-23 06:47:00,
2013-05-23 02:48:00,62.8,59.2,29.72,West,276,0.0,4.0,88,0.00,,,0.00,0.00,VWS V14.01,2013-05-23 06:48:00,
2013-05-23 02:49:00,62.7,59.1,29.72,West,274,0.0,7.0,88,0.00,,,0.00,0.00,VWS V14.01,2013-05-23 06:49:00,
2013-05-23 02:52:00,62.6,59.0,29.72,West,274,0.0,3.0,88,0.00,,,0.00,0.00,VWS V14.01,2013-05-23 06:52:00,
2013-05-23 02:53:00,62.6,59.0,29.72,West,274,0.0,3.0,88,0.00,,,0.00,0.00,VWS V14.01,2013-05-23 06:53:00,
2013-05-23 02:54:00,62.6,59.0,29.72,West,274,0.0,0.0,88,0.00,,,0.00,0.00,VWS V14.01,2013-05-23 06:54:00,
2013-05-23 02:57:00,62.5,59.2,29.72,West,274,0.0,0.0,89,0.00,,,0.00,0.00,VWS V14.01,2013-05-23 06:57:00,
2013-05-23 02:58:00,62.5,59.2,29.72,West,274,0.0,0.0,89,0.00,,,0.00,0.00,VWS V14.01,2013-05-23 06:58:00,
2013-05-23 02:59:00,62.5,59.2,29.72,West,274,0.0,1.0,89,0.00,,,0.00,0.00,VWS V14.01,2013-05-23 06:59:00,
2013-05-23 03:02:00,62.3,59.0,29.72,West,279,1.0,3.0,89,0.00,,,0.00,0.00,VWS V14.01,2013-05-23 07:02:00,
2013-05-23 03:03:00,62.3,59.0,29.72,West,279,0.0,3.0,89,0.00,,,0.00,0.00,VWS V14.01,2013-05-23 07:03:00,
2013-05-23 03:04:00,62.3,59.0,29.72,West,279,0.0,0.0,89,0.00,,,0.00,0.00,VWS V14.01,2013-05-23 07:04:00,
2013-05-23 03:08:00,62.2,58.9,29.72,West,279,0.0,0.0,89,0.00,,,0.00,0.00,VWS V14.01,2013-05-23 07:08:00,
2013-05-23 03:09:00,62.2,58.9,29.72,West,279,0.0,0.0,89,0.00,,,0.00,0.00,VWS V14.01,2013-05-23 07:09:00,
2013-05-23 03:13:00,62.1,58.8,29.72,West,279,0.0,1.0,89,0.00,,,0.00,0.00,VWS V14.01,2013-05-23 07:13:00,
2013-05-23 03:14:00,62.0,58.7,29.72,West,279,0.0,2.0,89,0.00,,,0.00,0.00,VWS V14.01,2013-05-23 07:14:00,
2013-05-23 03:18:00,61.9,58.9,29.72,West,279,0.0,2.0,90,0.00,,,0.00,0.00,VWS V14.01,2013-05-23 07:18:00,
2013-05-23 03:19:00,61.9,58.9,29.72,West,279,0.0,0.0,90,0.00,,,0.00,0.00,VWS V14.01,2013-05-23 07:19:00,
2013-05-23 03:23:00,61.8,58.8,29.72,West,279,0.0,2.0,90,0.00,,,0.00,0.00,VWS V14.01,2013-05-23 07:23:00,
2013-05-23 03:24:00,61.7,58.7,29.72,West,279,0.0,0.0,90,0.00,,,0.00,0.00,VWS V14.01,2013-05-23 07:24:00,
2013-05-23 03:28:00,61.6,58.6,29.72,West,279,0.0,2.0,90,0.00,,,0.00,0.00,VWS V14.01,2013-05-23 07:28:00,
2013-05-23 03:29:00,61.6,58.6,29.72,West,279,0.0,3.0,90,0.00,,,0.00,0.00,VWS V14.01,2013-05-23 07:29:00,
2013-05-23 03:33:00,61.5,58.8,29.72,West,279,0.0,2.0,91,0.00,,,0.00,0.00,VWS V14.01,2013-05-23 07:33:00,
2013-05-23 03:34:00,61.4,58.8,29.72,West,279,2.0,2.0,91,0.00,,,0.00,0.00,VWS V14.01,2013-05-23 07:34:00,
2013-05-23 03:38:00,61.4,58.8,29.72,West,279,2.0,4.0,91,0.00,,,0.00,0.00,VWS V14.01,2013-05-23 07:38:00,
2013-05-23 03:39:00,61.4,58.8,29.72,West,279,0.0,3.0,91,0.00,,,0.00,0.00,VWS V14.01,2013-05-23 07:39:00,
2013-05-23 03:43:00,61.3,58.7,29.72,West,279,0.0,1.0,91,0.00,,,0.00,0.00,VWS V14.01,2013-05-23 07:43:00,
2013-05-23 03:44:00,61.3,58.7,29.72,West,279,0.0,0.0,91,0.00,,,0.00,0.00,VWS V14.01,2013-05-23 07:44:00,
2013-05-23 03:48:00,61.3,58.7,29.72,West,279,0.0,0.0,91,0.00,,,0.00,0.00,VWS V14.01,2013-05-23 07:48:00,
2013-05-23 03:49:00,61.4,58.8,29.72,West,279,0.0,0.0,91,0.00,,,0.00,0.00,VWS V14.01,2013-05-23 07:49:00,
2013-05-23 03:50:00,61.4,58.8,29.72,West,279,0.0,1.0,91,0.00,,,0.00,0.00,VWS V14.01,2013-05-23 07:50:00,
2013-05-23 03:53:00,61.4,58.8,29.72,West,279,0.0,0.0,91,0.00,,,0.00,0.00,VWS V14.01,2013-05-23 07:53:00,
2013-05-23 03:54:00,61.4,58.8,29.72,West,279,0.0,0.0,91,0.00,,,0.00,0.00,VWS V14.01,2013-05-23 07:54:00,
2013-05-23 03:55:00,61.4,58.8,29.72,West,279,0.0,0.0,91,0.00,,,0.00,0.00,VWS V14.01,2013-05-23 07:55:00,
2013-05-23 03:56:00,61.4,58.8,29.72,West,279,0.0,0.0,91,0.00,,,0.00,0.00,VWS V14.01,2013-05-23 07:56:00,
2013-05-23 03:57:00,61.3,58.7,29.72,West,279,1.0,1.0,91,0.00,,,0.00,0.00,VWS V14.01,2013-05-23 07:57:00,
2013-05-23 03:58:00,61.3,58.7,29.73,West,279,2.0,2.0,91,0.00,,,0.00,0.00,VWS V14.01,2013-05-23 07:58:00,
2013-05-23 03:59:00,61.3,58.7,29.72,West,279,0.0,0.0,91,0.00,,,0.00,0.00,VWS V14.01,2013-05-23 07:59:00,
2013-05-23 04:00:00,61.3,58.7,29.72,West,279,0.0,0.0,91,0.00,,,0.00,0.00,VWS V14.01,2013-05-23 08:00:00,
2013-05-23 04:01:00,61.3,58.7,29.72,West,279,0.0,0.0,91,0.00,,,0.00,0.00,VWS V14.01,2013-05-23 08:01:00,
2013-05-23 04:02:00,61.3,58.7,29.72,West,279,4.0,5.0,91,0.00,,,0.00,0.00,VWS V14.01,2013-05-23 08:02:00,
2013-05-23 04:03:00,61.3,58.7,29.73,West,279,0.0,0.0,91,0.00,,,0.00,0.00,VWS V14.01,2013-05-23 08:03:00,
2013-05-23 04:04:00,61.4,58.8,29.73,West,279,0.0,0.0,91,0.00,,,0.00,0.00,VWS V14.01,2013-05-23 08:04:00,
2013-05-23 04:05:00,61.3,58.7,29.73,West,279,0.0,0.0,91,0.00,,,0.00,0.00,VWS V14.01,2013-05-23 08:05:00,
2013-05-23 04:06:00,61.3,58.7,29.73,West,279,0.0,0.0,91,0.00,,,0.00,0.00,VWS V14.01,2013-05-23 08:06:00,
2013-05-23 04:07:00,61.4,58.8,29.73,West,279,3.0,3.0,91,0.00,,,0.00,0.00,VWS V14.01,2013-05-23 08:07:00,
2013-05-23 04:09:00,61.4,58.8,29.73,West,279,1.0,1.0,91,0.00,,,0.00,0.00,VWS V14.01,2013-05-23 08:09:00,
2013-05-23 04:10:00,61.4,58.8,29.73,West,279,0.0,1.0,91,0.00,,,0.00,0.00,VWS V14.01,2013-05-23 08:10:00,
2013-05-23 04:11:00,61.4,58.8,29.73,West,279,0.0,0.0,91,0.00,,,0.00,0.00,VWS V14.01,2013-05-23 08:11:00,
2013-05-23 04:12:00,61.4,58.8,29.73,West,279,0.0,1.0,91,0.00,,,0.00,0.00,VWS V14.01,2013-05-23 08:12:00,
2013-05-23 04:14:00,61.4,58.8,29.73,West,279,0.0,4.0,91,0.00,,,0.00,0.00,VWS V14.01,2013-05-23 08:14:00,
2013-05-23 04:15:00,61.4,58.8,29.73,West,279,1.0,1.0,91,0.00,,,0.00,0.00,VWS V14.01,2013-05-23 08:15:00,
2013-05-23 04:16:00,61.4,58.8,29.73,West,279,0.0,0.0,91,0.00,,,0.00,0.00,VWS V14.01,2013-05-23 08:16:00,
2013-05-23 04:17:00,61.4,58.8,29.73,West,279,0.0,0.0,91,0.00,,,0.00,0.00,VWS V14.01,2013-05-23 08:17:00,
2013-05-23 04:19:00,61.4,58.8,29.73,West,279,0.0,1.0,91,0.00,,,0.00,0.00,VWS V14.01,2013-05-23 08:19:00,
2013-05-23 04:20:00,61.4,58.5,29.73,West,279,0.0,1.0,90,0.00,,,0.00,0.00,VWS V14.01,2013-05-23 08:20:00,
2013-05-23 04:21:00,61.5,58.5,29.73,West,279,0.0,0.0,90,0.00,,,0.00,0.00,VWS V14.01,2013-05-23 08:21:00,
2013-05-23 04:22:00,61.5,58.5,29.73,West,279,0.0,3.0,90,0.00,,,0.00,0.00,VWS V14.01,2013-05-23 08:22:00,
2013-05-23 04:24:00,61.5,58.5,29.73,West,279,0.0,0.0,90,0.00,,,0.00,0.00,VWS V14.01,2013-05-23 08:24:00,
2013-05-23 04:25:00,61.5,58.5,29.73,West,279,0.0,0.0,90,0.00,,,0.00,0.00,VWS V14.01,2013-05-23 08:25:00,
2013-05-23 04:26:00,61.5,58.5,29.73,West,279,0.0,0.0,90,0.00,,,0.00,0.00,VWS V14.01,2013-05-23 08:26:00,
2013-05-23 04:27:00,61.5,58.5,29.73,West,279,0.0,0.0,90,0.00,,,0.00,0.00,VWS V14.01,2013-05-23 08:27:00,
2013-05-23 04:29:00,61.5,58.5,29.73,West,279,0.0,0.0,90,0.00,,,0.00,0.00,VWS V14.01,2013-05-23 08:29:00,
2013-05-23 04:30:00,61.5,58.5,29.73,West,279,0.0,0.0,90,0.00,,,0.00,0.00,VWS V14.01,2013-05-23 08:30:00,
2013-05-23 04:31:00,61.6,58.6,29.73,West,279,0.0,0.0,90,0.00,,,0.00,0.00,VWS V14.01,2013-05-23 08:31:00,
2013-05-23 04:32:00,61.6,58.6,29.73,West,279,1.0,1.0,90,0.00,,,0.00,0.00,VWS V14.01,2013-05-23 08:32:00,
2013-05-23 04:34:00,61.6,58.6,29.73,West,279,0.0,0.0,90,0.00,,,0.00,0.00,VWS V14.01,2013-05-23 08:34:00,
2013-05-23 04:35:00,61.6,58.6,29.73,West,279,0.0,0.0,90,0.00,,,0.00,0.00,VWS V14.01,2013-05-23 08:35:00,
2013-05-23 04:36:00,61.6,58.3,29.73,West,279,0.0,0.0,89,0.00,,,0.00,0.00,VWS V14.01,2013-05-23 08:36:00,
2013-05-23 04:37:00,61.6,58.3,29.73,West,279,1.0,1.0,89,0.00,,,0.00,0.00,VWS V14.01,2013-05-23 08:37:00,
2013-05-23 04:39:00,61.6,58.3,29.73,West,279,0.0,4.0,89,0.00,,,0.00,0.00,VWS V14.01,2013-05-23 08:39:00,
2013-05-23 04:40:00,61.6,58.3,29.73,West,279,0.0,0.0,89,0.00,,,0.00,0.00,VWS V14.01,2013-05-23 08:40:00,
2013-05-23 04:41:00,61.6,58.3,29.73,West,279,0.0,0.0,89,0.00,,,0.00,0.00,VWS V14.01,2013-05-23 08:41:00,
2013-05-23 04:42:00,61.6,58.3,29.73,West,279,0.0,0.0,89,0.00,,,0.00,0.00,VWS V14.01,2013-05-23 08:42:00,
2013-05-23 04:44:00,61.6,58.3,29.73,West,279,0.0,0.0,89,0.00,,,0.00,0.00,VWS V14.01,2013-05-23 08:44:00,
2013-05-23 04:45:00,61.6,58.3,29.73,West,279,0.0,1.0,89,0.00,,,0.00,0.00,VWS V14.01,2013-05-23 08:45:00,
2013-05-23 04:46:00,61.6,58.3,29.73,West,279,0.0,0.0,89,0.00,,,0.00,0.00,VWS V14.01,2013-05-23 08:46:00,
2013-05-23 04:47:00,61.6,58.3,29.73,West,279,0.0,4.0,89,0.00,,,0.00,0.00,VWS V14.01,2013-05-23 08:47:00,
2013-05-23 04:49:00,61.6,58.3,29.73,West,279,0.0,0.0,89,0.00,,,0.00,0.00,VWS V14.01,2013-05-23 08:49:00,
2013-05-23 04:50:00,61.7,58.4,29.73,West,279,0.0,1.0,89,0.00,,,0.00,0.00,VWS V14.01,2013-05-23 08:50:00,
2013-05-23 04:51:00,61.6,58.3,29.74,West,279,0.0,3.0,89,0.00,,,0.00,0.00,VWS V14.01,2013-05-23 08:51:00,
2013-05-23 04:52:00,61.7,58.4,29.73,West,279,2.0,2.0,89,0.00,,,0.00,0.00,VWS V14.01,2013-05-23 08:52:00,
2013-05-23 04:54:00,61.6,58.3,29.74,West,279,0.0,0.0,89,0.00,,,0.00,0.00,VWS V14.01,2013-05-23 08:54:00,
2013-05-23 04:55:00,61.7,58.4,29.74,West,279,0.0,0.0,89,0.00,,,0.00,0.00,VWS V14.01,2013-05-23 08:55:00,
2013-05-23 04:56:00,61.7,58.4,29.74,West,279,0.0,0.0,89,0.00,,,0.00,0.00,VWS V14.01,2013-05-23 08:56:00,
2013-05-23 04:57:00,61.7,58.4,29.74,West,279,2.0,2.0,89,0.00,,,0.00,0.00,VWS V14.01,2013-05-23 08:57:00,
2013-05-23 04:59:00,61.7,58.4,29.74,West,279,3.0,3.0,89,0.00,,,0.00,0.00,VWS V14.01,2013-05-23 08:59:00,
2013-05-23 05:00:00,61.7,58.4,29.74,West,279,0.0,3.0,89,0.00,,,0.00,0.00,VWS V14.01,2013-05-23 09:00:00,
2013-05-23 05:01:00,61.7,58.7,29.74,West,279,0.0,0.0,90,0.00,,,0.00,0.00,VWS V14.01,2013-05-23 09:01:00,
2013-05-23 05:02:00,61.7,58.7,29.73,West,279,0.0,1.0,90,0.00,,,0.00,0.00,VWS V14.01,2013-05-23 09:02:00,
2013-05-23 05:04:00,61.7,58.7,29.74,West,279,0.0,1.0,90,0.00,,,0.00,0.00,VWS V14.01,2013-05-23 09:04:00,
2013-05-23 05:05:00,61.7,58.7,29.74,West,279,0.0,1.0,90,0.00,,,0.00,0.00,VWS V14.01,2013-05-23 09:05:00,
2013-05-23 05:07:00,61.8,58.8,29.74,West,279,0.0,0.0,90,0.00,,,0.00,0.00,VWS V14.01,2013-05-23 09:07:00,
2013-05-23 05:09:00,61.8,58.8,29.74,West,279,0.0,0.0,90,0.00,,,0.00,0.00,VWS V14.01,2013-05-23 09:09:00,
2013-05-23 05:10:00,61.8,58.8,29.74,West,279,1.0,1.0,90,0.00,,,0.00,0.00,VWS V14.01,2013-05-23 09:10:00,
2013-05-23 05:12:00,61.8,58.8,29.74,West,279,0.0,0.0,90,0.00,,,0.00,0.00,VWS V14.01,2013-05-23 09:12:00,
2013-05-23 05:13:00,61.8,58.8,29.74,West,279,0.0,1.0,90,0.00,,,0.00,0.00,VWS V14.01,2013-05-23 09:13:00,
2013-05-23 05:14:00,61.8,58.8,29.74,West,279,0.0,0.0,90,0.00,,,0.00,0.00,VWS V14.01,2013-05-23 09:14:00,
2013-05-23 05:15:00,61.8,58.8,29.74,West,279,0.0,1.0,90,0.00,,,0.00,0.00,VWS V14.01,2013-05-23 09:15:00,
2013-05-23 05:17:00,61.7,58.7,29.74,West,279,0.0,4.0,90,0.00,,,0.00,0.00,VWS V14.01,2013-05-23 09:17:00,
2013-05-23 05:18:00,61.8,58.8,29.74,NW,308,1.0,5.0,90,0.00,,,0.00,0.00,VWS V14.01,2013-05-23 09:18:00,
2013-05-23 05:19:00,61.7,58.7,29.74,NW,308,0.0,1.0,90,0.00,,,0.00,0.00,VWS V14.01,2013-05-23 09:19:00,
2013-05-23 05:20:00,61.7,58.7,29.74,NW,308,0.0,0.0,90,0.00,,,0.00,0.00,VWS V14.01,2013-05-23 09:20:00,
2013-05-23 05:21:00,61.7,58.7,29.74,NW,308,0.0,0.0,90,0.00,,,0.00,0.00,VWS V14.01,2013-05-23 09:21:00,
2013-05-23 05:22:00,61.7,58.7,29.74,NW,308,0.0,0.0,90,0.00,,,0.00,0.00,VWS V14.01,2013-05-23 09:22:00,
2013-05-23 05:23:00,61.7,58.7,29.74,NW,308,0.0,0.0,90,0.00,,,0.00,0.00,VWS V14.01,2013-05-23 09:23:00,
2013-05-23 05:24:00,61.7,58.7,29.74,NW,308,0.0,0.0,90,0.00,,,0.00,0.00,VWS V14.01,2013-05-23 09:24:00,
2013-05-23 05:25:00,61.7,58.7,29.74,NW,308,0.0,0.0,90,0.00,,,0.00,0.00,VWS V14.01,2013-05-23 09:25:00,
2013-05-23 05:26:00,61.7,58.7,29.74,NW,308,0.0,0.0,90,0.00,,,0.00,0.00,VWS V14.01,2013-05-23 09:26:00,
2013-05-23 05:27:00,61.7,58.7,29.74,NW,308,0.0,0.0,90,0.00,,,0.00,0.00,VWS V14.01,2013-05-23 09:27:00,
2013-05-23 05:28:00,61.7,58.7,29.74,NW,308,0.0,1.0,90,0.00,,,0.00,0.00,VWS V14.01,2013-05-23 09:28:00,
2013-05-23 05:30:00,61.7,58.4,29.74,NW,306,0.0,5.0,89,0.00,,,0.00,0.00,VWS V14.01,2013-05-23 09:30:00,
2013-05-23 05:31:00,61.7,58.7,29.74,NW,306,0.0,0.0,90,0.00,,,0.00,0.00,VWS V14.01,2013-05-23 09:31:00,
2013-05-23 05:32:00,61.7,58.7,29.74,NW,306,0.0,0.0,90,0.00,,,0.00,0.00,VWS V14.01,2013-05-23 09:32:00,
2013-05-23 05:33:00,61.7,58.7,29.74,NW,306,0.0,0.0,90,0.00,,,0.00,0.00,VWS V14.01,2013-05-23 09:33:00,
2013-05-23 05:35:00,61.7,58.7,29.74,NW,306,0.0,0.0,90,0.00,,,0.00,0.00,VWS V14.01,2013-05-23 09:35:00,
2013-05-23 05:36:00,61.7,58.7,29.74,NW,306,0.0,0.0,90,0.00,,,0.00,0.00,VWS V14.01,2013-05-23 09:36:00,
2013-05-23 05:37:00,61.7,58.7,29.74,NW,306,0.0,0.0,90,0.00,,,0.00,0.00,VWS V14.01,2013-05-23 09:37:00,
2013-05-23 05:38:00,61.7,58.7,29.74,NW,306,0.0,0.0,90,0.00,,,0.00,0.00,VWS V14.01,2013-05-23 09:38:00,
2013-05-23 05:40:00,61.7,58.7,29.74,NW,306,0.0,1.0,90,0.00,,,0.00,0.00,VWS V14.01,2013-05-23 09:40:00,
2013-05-23 05:41:00,61.7,58.7,29.74,NW,306,0.0,1.0,90,0.00,,,0.00,0.00,VWS V14.01,2013-05-23 09:41:00,
2013-05-23 05:42:00,61.7,58.7,29.74,NW,306,0.0,0.0,90,0.00,,,0.00,0.00,VWS V14.01,2013-05-23 09:42:00,
2013-05-23 05:43:00,61.7,58.7,29.74,NW,306,0.0,0.0,90,0.00,,,0.00,0.00,VWS V14.01,2013-05-23 09:43:00,
2013-05-23 05:45:00,61.7,59.0,29.74,NW,306,0.0,0.0,91,0.00,,,0.00,0.00,VWS V14.01,2013-05-23 09:45:00,
2013-05-23 05:46:00,61.7,59.0,29.74,NW,306,1.0,1.0,91,0.00,,,0.00,0.00,VWS V14.01,2013-05-23 09:46:00,
2013-05-23 05:47:00,61.7,59.0,29.74,NW,305,0.0,2.0,91,0.00,,,0.00,0.00,VWS V14.01,2013-05-23 09:47:00,
2013-05-23 05:48:00,61.7,59.0,29.74,WSW,250,0.0,0.0,91,0.00,,,0.00,0.00,VWS V14.01,2013-05-23 09:48:00,
2013-05-23 05:50:00,61.7,59.0,29.75,WSW,254,3.0,3.0,91,0.00,,,0.00,0.00,VWS V14.01,2013-05-23 09:50:00,
2013-05-23 05:51:00,61.7,59.0,29.74,West,263,0.0,2.0,91,0.00,,,0.00,0.00,VWS V14.01,2013-05-23 09:51:00,
2013-05-23 05:52:00,61.7,59.0,29.74,West,263,0.0,0.0,91,0.00,,,0.00,0.00,VWS V14.01,2013-05-23 09:52:00,
2013-05-23 05:53:00,61.7,59.0,29.75,WSW,258,0.0,0.0,91,0.00,,,0.00,0.00,VWS V14.01,2013-05-23 09:53:00,
2013-05-23 05:55:00,61.7,59.0,29.75,WSW,258,0.0,3.0,91,0.00,,,0.00,0.00,VWS V14.01,2013-05-23 09:55:00,
2013-05-23 05:56:00,61.6,58.6,29.75,WSW,258,0.0,0.0,90,0.00,,,0.00,0.00,VWS V14.01,2013-05-23 09:56:00,
2013-05-23 05:57:00,61.6,58.6,29.75,WSW,258,0.0,0.0,90,0.00,,,0.00,0.00,VWS V14.01,2013-05-23 09:57:00,
2013-05-23 05:58:00,61.6,58.6,29.75,WSW,258,0.0,0.0,90,0.00,,,0.00,0.00,VWS V14.01,2013-05-23 09:58:00,
2013-05-23 06:00:00,61.6,58.6,29.75,West,271,0.0,1.0,90,0.00,,,0.00,0.00,VWS V14.01,2013-05-23 10:00:00,
2013-05-23 06:01:00,61.6,58.6,29.75,North,360,1.0,5.0,90,0.00,,,0.00,0.00,VWS V14.01,2013-05-23 10:01:00,
2013-05-23 06:02:00,61.6,58.6,29.75,North,360,0.0,2.0,90,0.00,,,0.00,0.00,VWS V14.01,2013-05-23 10:02:00,
2013-05-23 06:03:00,61.6,58.6,29.75,North,360,0.0,1.0,90,0.00,,,0.00,0.00,VWS V14.01,2013-05-23 10:03:00,
2013-05-23 06:05:00,61.6,58.6,29.75,North,360,2.0,3.0,90,0.00,,,0.00,0.00,VWS V14.01,2013-05-23 10:05:00,
2013-05-23 06:06:00,61.6,58.6,29.75,North,360,0.0,3.0,90,0.00,,,0.00,0.00,VWS V14.01,2013-05-23 10:06:00,
2013-05-23 06:07:00,61.6,58.6,29.75,North,360,0.0,0.0,90,0.00,,,0.00,0.00,VWS V14.01,2013-05-23 10:07:00,
2013-05-23 06:08:00,61.6,58.6,29.75,North,360,0.0,0.0,90,0.00,,,0.00,0.00,VWS V14.01,2013-05-23 10:08:00,
2013-05-23 06:10:00,61.5,58.2,29.75,NNE,17,4.0,4.0,89,0.00,,,0.00,0.00,VWS V14.01,2013-05-23 10:10:00,
2013-05-23 06:11:00,61.5,58.2,29.75,NNE,17,3.0,3.0,89,0.00,,,0.00,0.00,VWS V14.01,2013-05-23 10:11:00,
2013-05-23 06:12:00,61.5,57.9,29.75,North,11,0.0,3.0,88,0.00,,,0.00,0.00,VWS V14.01,2013-05-23 10:12:00,
2013-05-23 06:13:00,61.5,57.9,29.75,North,11,1.0,1.0,88,0.00,,,0.00,0.00,VWS V14.01,2013-05-23 10:13:00,
2013-05-23 06:15:00,61.4,57.8,29.75,NNE,19,1.0,1.0,88,0.00,,,0.00,0.00,VWS V14.01,2013-05-23 10:15:00,
2013-05-23 06:16:00,61.4,57.8,29.75,NNE,16,0.0,1.0,88,0.00,,,0.00,0.00,VWS V14.01,2013-05-23 10:16:00,
2013-05-23 06:17:00,61.4,57.8,29.75,NNE,16,2.0,2.0,88,0.00,,,0.00,0.00,VWS V14.01,2013-05-23 10:17:00,
2013-05-23 06:18:00,61.4,57.8,29.75,NNE,16,0.0,1.0,88,0.00,,,0.00,0.00,VWS V14.01,2013-05-23 10:18:00,
2013-05-23 06:20:00,61.4,57.5,29.75,NNE,17,0.0,5.0,87,0.00,,,0.00,0.00,VWS V14.01,2013-05-23 10:20:00,
2013-05-23 06:21:00,61.4,57.5,29.75,NNE,18,0.0,0.0,87,0.00,,,0.00,0.00,VWS V14.01,2013-05-23 10:21:00,
2013-05-23 06:22:00,61.4,57.5,29.75,NNE,18,3.0,5.0,87,0.00,,,0.00,0.00,VWS V14.01,2013-05-23 10:22:00,
2013-05-23 06:23:00,61.4,57.5,29.75,NNE,18,4.0,4.0,87,0.00,,,0.00,0.00,VWS V14.01,2013-05-23 10:23:00,
2013-05-23 06:25:00,61.4,57.5,29.75,NNE,19,0.0,2.0,87,0.00,,,0.00,0.00,VWS V14.01,2013-05-23 10:25:00,
2013-05-23 06:26:00,61.4,57.2,29.75,NNE,19,0.0,4.0,86,0.00,,,0.00,0.00,VWS V14.01,2013-05-23 10:26:00,
2013-05-23 06:27:00,61.4,57.2,29.75,NNW,343,5.0,5.0,86,0.00,,,0.00,0.00,VWS V14.01,2013-05-23 10:27:00,
2013-05-23 06:28:00,61.4,57.2,29.75,NNW,346,0.0,7.0,86,0.00,,,0.00,0.00,VWS V14.01,2013-05-23 10:28:00,
2013-05-23 06:30:00,61.4,57.2,29.75,North,350,2.0,2.0,86,0.00,,,0.00,0.00,VWS V14.01,2013-05-23 10:30:00,
2013-05-23 06:31:00,61.4,57.2,29.75,North,350,0.0,1.0,86,0.00,,,0.00,0.00,VWS V14.01,2013-05-23 10:31:00,
2013-05-23 06:32:00,61.4,57.2,29.75,North,350,0.0,0.0,86,0.00,,,0.00,0.00,VWS V14.01,2013-05-23 10:32:00,
2013-05-23 06:33:00,61.3,57.1,29.75,WNW,290,1.0,5.0,86,0.00,,,0.00,0.00,VWS V14.01,2013-05-23 10:33:00,
2013-05-23 06:35:00,61.3,57.1,29.75,NW,323,2.0,4.0,86,0.00,,,0.00,0.00,VWS V14.01,2013-05-23 10:35:00,
2013-05-23 06:36:00,61.3,56.8,29.75,NW,323,0.0,1.0,85,0.00,,,0.00,0.00,VWS V14.01,2013-05-23 10:36:00,
2013-05-23 06:37:00,61.2,56.7,29.76,NW,325,2.0,3.0,85,0.00,,,0.00,0.00,VWS V14.01,2013-05-23 10:37:00,
2013-05-23 06:38:00,61.2,57.0,29.76,NW,325,0.0,3.0,86,0.00,,,0.00,0.00,VWS V14.01,2013-05-23 10:38:00,
2013-05-23 06:40:00,61.2,57.0,29.76,NW,324,0.0,0.0,86,0.00,,,0.00,0.00,VWS V14.01,2013-05-23 10:40:00,
2013-05-23 06:41:00,61.2,57.3,29.76,NW,324,0.0,0.0,87,0.01,,,0.01,0.00,VWS V14.01,2013-05-23 10:41:00,
2013-05-23 06:42:00,61.2,57.3,29.76,NW,324,0.0,0.0,87,0.01,,,0.01,0.00,VWS V14.01,2013-05-23 10:42:00,
2013-05-23 06:43:00,61.2,57.3,29.76,NW,324,0.0,1.0,87,0.02,,,0.02,0.00,VWS V14.01,2013-05-23 10:43:00,
2013-05-23 06:45:00,61.1,57.5,29.76,NW,324,0.0,1.0,88,0.02,,,0.02,0.00,VWS V14.01,2013-05-23 10:45:00,
2013-05-23 06:46:00,61.1,57.5,29.76,NW,324,1.0,1.0,88,0.02,,,0.02,0.00,VWS V14.01,2013-05-23 10:46:00,
2013-05-23 06:47:00,60.9,57.3,29.76,NW,326,2.0,2.0,88,0.02,,,0.02,0.00,VWS V14.01,2013-05-23 10:47:00,
2013-05-23 06:48:00,60.9,57.3,29.76,NW,326,1.0,2.0,88,0.02,,,0.02,0.00,VWS V14.01,2013-05-23 10:48:00,
2013-05-23 06:50:00,60.7,57.1,29.76,NNW,338,0.0,5.0,88,0.02,,,0.02,0.00,VWS V14.01,2013-05-23 10:50:00,
2013-05-23 06:51:00,60.7,57.1,29.76,NNW,338,0.0,0.0,88,0.02,,,0.02,0.00,VWS V14.01,2013-05-23 10:51:00,
2013-05-23 06:52:00,60.6,57.0,29.76,NNW,338,0.0,1.0,88,0.02,,,0.02,0.00,VWS V14.01,2013-05-23 10:52:00,
2013-05-23 06:53:00,60.6,57.3,29.76,NNW,338,0.0,1.0,89,0.02,,,0.02,0.00,VWS V14.01,2013-05-23 10:53:00,
2013-05-23 06:55:00,60.5,57.2,29.76,NW,321,3.0,3.0,89,0.02,,,0.02,0.00,VWS V14.01,2013-05-23 10:55:00,
2013-05-23 06:56:00,60.4,57.2,29.76,NW,321,0.0,1.0,89,0.02,,,0.02,0.00,VWS V14.01,2013-05-23 10:56:00,
2013-05-23 06:57:00,60.4,57.5,29.76,NW,321,0.0,0.0,90,0.02,,,0.02,0.00,VWS V14.01,2013-05-23 10:57:00,
2013-05-23 06:58:00,60.4,57.5,29.76,NW,321,0.0,0.0,90,0.02,,,0.02,0.00,VWS V14.01,2013-05-23 10:58:00,
2013-05-23 07:00:00,60.3,57.0,29.76,NW,321,1.0,1.0,89,0.02,,,0.02,0.00,VWS V14.01,2013-05-23 11:00:00,
2013-05-23 07:01:00,60.2,57.0,29.76,NW,321,0.0,0.0,89,0.02,,,0.02,0.00,VWS V14.01,2013-05-23 11:01:00,
2013-05-23 07:02:00,60.2,57.0,29.76,NW,321,0.0,1.0,89,0.02,,,0.02,0.00,VWS V14.01,2013-05-23 11:02:00,
2013-05-23 07:03:00,60.2,57.0,29.76,NW,321,0.0,1.0,89,0.02,,,0.02,0.00,VWS V14.01,2013-05-23 11:03:00,
2013-05-23 07:05:00,60.1,57.2,29.76,NW,321,0.0,1.0,90,0.02,,,0.02,0.00,VWS V14.01,2013-05-23 11:05:00,
2013-05-23 07:06:00,60.1,57.2,29.76,NW,321,1.0,1.0,90,0.02,,,0.02,0.00,VWS V14.01,2013-05-23 11:06:00,
2013-05-23 07:07:00,60.1,57.2,29.76,NW,321,0.0,0.0,90,0.02,,,0.02,0.00,VWS V14.01,2013-05-23 11:07:00,
2013-05-23 07:08:00,60.1,57.2,29.76,NW,321,0.0,0.0,90,0.02,,,0.02,0.00,VWS V14.01,2013-05-23 11:08:00,
2013-05-23 07:10:00,60.1,57.2,29.76,NW,321,0.0,4.0,90,0.02,,,0.02,0.00,VWS V14.01,2013-05-23 11:10:00,
2013-05-23 07:11:00,60.1,57.2,29.77,NW,321,0.0,0.0,90,0.02,,,0.02,0.00,VWS V14.01,2013-05-23 11:11:00,
2013-05-23 07:12:00,60.1,57.5,29.77,NW,321,0.0,0.0,91,0.02,,,0.02,0.00,VWS V14.01,2013-05-23 11:12:00,
2013-05-23 07:13:00,60.0,57.4,29.77,NW,321,0.0,0.0,91,0.02,,,0.02,0.00,VWS V14.01,2013-05-23 11:13:00,
2013-05-23 07:14:00,60.1,57.5,29.77,NW,321,0.0,0.0,91,0.02,,,0.02,0.00,VWS V14.01,2013-05-23 11:14:00,
2013-05-23 07:15:00,60.0,57.4,29.77,NW,321,0.0,0.0,91,0.02,,,0.02,0.00,VWS V14.01,2013-05-23 11:15:00,
2013-05-23 07:16:00,60.1,57.5,29.77,NW,321,0.0,0.0,91,0.02,,,0.02,0.00,VWS V14.01,2013-05-23 11:16:00,
2013-05-23 07:17:00,60.1,57.8,29.77,NW,321,0.0,0.0,92,0.02,,,0.02,0.00,VWS V14.01,2013-05-23 11:17:00,
2013-05-23 07:18:00,60.1,57.8,29.77,NW,321,0.0,0.0,92,0.02,,,0.02,0.00,VWS V14.01,2013-05-23 11:18:00,
2013-05-23 07:19:00,60.1,57.8,29.77,NW,321,0.0,1.0,92,0.02,,,0.02,0.00,VWS V14.01,2013-05-23 11:19:00,
2013-05-23 07:21:00,60.0,57.7,29.77,NW,321,0.0,0.0,92,0.02,,,0.02,0.00,VWS V14.01,2013-05-23 11:21:00,
2013-05-23 07:22:00,60.0,57.4,29.77,NW,319,1.0,1.0,91,0.02,,,0.02,0.00,VWS V14.01,2013-05-23 11:22:00,
2013-05-23 07:23:00,60.0,57.4,29.77,NW,319,1.0,1.0,91,0.02,,,0.02,0.00,VWS V14.01,2013-05-23 11:23:00,
2013-05-23 07:24:00,60.0,57.4,29.77,NW,319,2.0,3.0,91,0.02,,,0.02,0.00,VWS V14.01,2013-05-23 11:24:00,
2013-05-23 07:26:00,60.1,57.8,29.77,NW,319,0.0,4.0,92,0.02,,,0.02,0.00,VWS V14.01,2013-05-23 11:26:00,
2013-05-23 07:27:00,60.1,57.8,29.77,NW,319,3.0,4.0,92,0.02,,,0.02,0.00,VWS V14.01,2013-05-23 11:27:00,
2013-05-23 07:28:00,60.1,57.8,29.77,NW,319,0.0,1.0,92,0.02,,,0.02,0.00,VWS V14.01,2013-05-23 11:28:00,
2013-05-23 07:29:00,60.2,57.9,29.77,NW,319,0.0,0.0,92,0.02,,,0.02,0.00,VWS V14.01,2013-05-23 11:29:00,
2013-05-23 07:31:00,60.2,57.9,29.77,NW,319,0.0,2.0,92,0.02,,,0.02,0.00,VWS V14.01,2013-05-23 11:31:00,
2013-05-23 07:33:00,60.2,57.9,29.77,ESE,119,1.0,1.0,92,0.02,,,0.02,0.00,VWS V14.01,2013-05-23 11:33:00,
2013-05-23 07:34:00,60.3,58.0,29.77,WNW,295,1.0,1.0,92,0.02,,,0.02,0.00,VWS V14.01,2013-05-23 11:34:00,
2013-05-23 07:36:00,60.2,57.9,29.77,West,268,0.0,2.0,92,0.02,,,0.02,0.00,VWS V14.01,2013-05-23 11:36:00,
2013-05-23 07:38:00,60.2,57.9,29.77,West,270,0.0,5.0,92,0.02,,,0.02,0.00,VWS V14.01,2013-05-23 11:38:00,
2013-05-23 07:39:00,60.3,58.0,29.77,West,270,0.0,1.0,92,0.02,,,0.02,0.00,VWS V14.01,2013-05-23 11:39:00,
2013-05-23 07:41:00,60.3,58.0,29.77,West,270,1.0,1.0,92,0.02,,,0.02,0.00,VWS V14.01,2013-05-23 11:41:00,
2013-05-23 07:43:00,60.3,58.0,29.77,West,270,0.0,2.0,92,0.01,,,0.02,0.00,VWS V14.01,2013-05-23 11:43:00,
2013-05-23 07:44:00,60.3,58.0,29.77,West,270,2.0,2.0,92,0.00,,,0.02,0.00,VWS V14.01,2013-05-23 11:44:00,
2013-05-23 07:46:00,60.3,58.0,29.77,West,270,0.0,0.0,92,0.00,,,0.02,0.00,VWS V14.01,2013-05-23 11:46:00,
2013-05-23 07:47:00,60.4,58.1,29.77,West,270,0.0,1.0,92,0.00,,,0.02,0.00,VWS V14.01,2013-05-23 11:47:00,
2013-05-23 07:48:00,60.4,58.1,29.77,West,265,0.0,0.0,92,0.00,,,0.02,0.00,VWS V14.01,2013-05-23 11:48:00,
2013-05-23 07:49:00,60.4,58.1,29.77,West,265,0.0,0.0,92,0.00,,,0.02,0.00,VWS V14.01,2013-05-23 11:49:00,
2013-05-23 07:51:00,60.5,58.2,29.77,West,268,0.0,0.0,92,0.00,,,0.02,0.00,VWS V14.01,2013-05-23 11:51:00,
2013-05-23 07:52:00,60.5,58.2,29.77,West,268,4.0,4.0,92,0.00,,,0.02,0.00,VWS V14.01,2013-05-23 11:52:00,
2013-05-23 07:53:00,60.5,58.2,29.77,West,270,0.0,0.0,92,0.00,,,0.02,0.00,VWS V14.01,2013-05-23 11:53:00,
2013-05-23 07:54:00,60.5,58.2,29.77,West,259,0.0,1.0,92,0.00,,,0.02,0.00,VWS V14.01,2013-05-23 11:54:00,
2013-05-23 07:56:00,60.6,58.3,29.78,WSW,249,1.0,1.0,92,0.00,,,0.02,0.00,VWS V14.01,2013-05-23 11:56:00,
2013-05-23 07:57:00,60.6,58.3,29.78,WSW,250,3.0,5.0,92,0.00,,,0.02,0.00,VWS V14.01,2013-05-23 11:57:00,
2013-05-23 07:58:00,60.6,58.3,29.78,WSW,252,0.0,1.0,92,0.00,,,0.02,0.00,VWS V14.01,2013-05-23 11:58:00,
2013-05-23 07:59:00,60.7,58.4,29.78,WNW,285,0.0,2.0,92,0.00,,,0.02,0.00,VWS V14.01,2013-05-23 11:59:00,
2013-05-23 08:01:00,60.7,58.1,29.78,WNW,285,0.0,4.0,91,0.00,,,0.02,0.00,VWS V14.01,2013-05-23 12:01:00,
2013-05-23 08:02:00,60.8,58.2,29.78,WNW,285,1.0,4.0,91,0.00,,,0.02,0.00,VWS V14.01,2013-05-23 12:02:00,
2013-05-23 08:03:00,60.8,58.2,29.78,WNW,286,0.0,1.0,91,0.00,,,0.02,0.00,VWS V14.01,2013-05-23 12:03:00,
2013-05-23 08:04:00,60.9,58.6,29.78,WNW,286,0.0,2.0,92,0.00,,,0.02,0.00,VWS V14.01,2013-05-23 12:04:00,
2013-05-23 08:06:00,61.0,58.4,29.78,WNW,286,0.0,3.0,91,0.00,,,0.02,0.00,VWS V14.01,2013-05-23 12:06:00,
2013-05-23 08:07:00,61.0,58.4,29.78,WNW,286,3.0,3.0,91,0.00,,,0.02,0.00,VWS V14.01,2013-05-23 12:07:00,
2013-05-23 08:08:00,61.1,58.5,29.78,WNW,290,0.0,0.0,91,0.00,,,0.02,0.00,VWS V14.01,2013-05-23 12:08:00,
2013-05-23 08:09:00,61.1,58.5,29.78,WNW,290,1.0,1.0,91,0.00,,,0.02,0.00,VWS V14.01,2013-05-23 12:09:00,
2013-05-23 08:11:00,61.2,58.2,29.78,WNW,303,0.0,3.0,90,0.00,,,0.02,0.00,VWS V14.01,2013-05-23 12:11:00,
2013-05-23 08:12:00,61.2,58.2,29.78,WNW,303,0.0,1.0,90,0.00,,,0.02,0.00,VWS V14.01,2013-05-23 12:12:00,
2013-05-23 08:14:00,61.2,58.2,29.78,NW,304,1.0,5.0,90,0.00,,,0.02,0.00,VWS V14.01,2013-05-23 12:14:00,
2013-05-23 08:15:00,61.2,58.2,29.78,NW,304,1.0,4.0,90,0.00,,,0.02,0.00,VWS V14.01,2013-05-23 12:15:00,
2013-05-23 08:16:00,61.2,58.2,29.78,NW,306,1.0,7.0,90,0.00,,,0.02,0.00,VWS V14.01,2013-05-23 12:16:00,
2013-05-23 08:17:00,61.2,58.2,29.78,WNW,300,0.0,1.0,90,0.00,,,0.02,0.00,VWS V14.01,2013-05-23 12:17:00,
2013-05-23 08:19:00,61.1,57.8,29.78,WNW,293,2.0,4.0,89,0.00,,,0.02,0.00,VWS V14.01,2013-05-23 12:19:00,
2013-05-23 08:20:00,61.1,57.8,29.78,West,269,5.0,5.0,89,0.00,,,0.02,0.00,VWS V14.01,2013-05-23 12:20:00,
2013-05-23 08:22:00,61.1,57.8,29.78,West,281,1.0,3.0,89,0.00,,,0.02,0.00,VWS V14.01,2013-05-23 12:22:00,
2013-05-23 08:24:00,61.0,57.7,29.78,NNE,27,4.0,4.0,89,0.00,,,0.02,0.00,VWS V14.01,2013-05-23 12:24:00,
2013-05-23 08:25:00,61.0,57.7,29.78,NNE,28,6.0,6.0,89,0.00,,,0.02,0.00,VWS V14.01,2013-05-23 12:25:00,
2013-05-23 08:27:00,61.0,57.7,29.78,NNW,332,4.0,5.0,89,0.00,,,0.02,0.00,VWS V14.01,2013-05-23 12:27:00,
2013-05-23 08:29:00,61.0,57.7,29.78,NNW,330,0.0,0.0,89,0.00,,,0.02,0.00,VWS V14.01,2013-05-23 12:29:00,
2013-05-23 08:30:00,61.0,57.7,29.78,West,259,2.0,5.0,89,0.00,,,0.02,0.00,VWS V14.01,2013-05-23 12:30:00,
2013-05-23 08:32:00,61.0,57.7,29.78,NW,309,4.0,4.0,89,0.00,,,0.02,0.00,VWS V14.01,2013-05-23 12:32:00,
2013-05-23 08:34:00,61.0,57.4,29.78,NNW,346,4.0,8.0,88,0.00,,,0.02,0.00,VWS V14.01,2013-05-23 12:34:00,
2013-05-23 08:35:00,61.0,57.4,29.78,NNW,346,3.0,4.0,88,0.00,,,0.02,0.00,VWS V14.01,2013-05-23 12:35:00,
2013-05-23 08:37:00,61.1,57.5,29.78,NE,36,0.0,0.0,88,0.00,,,0.02,0.00,VWS V14.01,2013-05-23 12:37:00,
2013-05-23 08:39:00,61.1,57.8,29.78,NE,38,0.0,1.0,89,0.00,,,0.02,0.00,VWS V14.01,2013-05-23 12:39:00,
2013-05-23 08:40:00,61.1,57.8,29.78,NNW,340,4.0,4.0,89,0.00,,,0.02,0.00,VWS V14.01,2013-05-23 12:40:00,
2013-05-23 08:42:00,61.1,57.5,29.78,WNW,303,1.0,3.0,88,0.00,,,0.02,0.00,VWS V14.01,2013-05-23 12:42:00,
2013-05-23 08:44:00,61.1,57.2,29.78,North,350,1.0,3.0,87,0.00,,,0.02,0.00,VWS V14.01,2013-05-23 12:44:00,
2013-05-23 08:45:00,61.1,57.5,29.78,North,350,2.0,2.0,88,0.00,,,0.02,0.00,VWS V14.01,2013-05-23 12:45:00,
2013-05-23 08:47:00,61.0,57.4,29.78,NNW,339,0.0,1.0,88,0.00,,,0.02,0.00,VWS V14.01,2013-05-23 12:47:00,
2013-05-23 08:49:00,61.0,57.4,29.78,NNW,335,1.0,2.0,88,0.00,,,0.02,0.00,VWS V14.01,2013-05-23 12:49:00,
2013-05-23 08:50:00,61.1,57.5,29.78,NNW,335,0.0,0.0,88,0.00,,,0.02,0.00,VWS V14.01,2013-05-23 12:50:00,
2013-05-23 08:52:00,61.1,57.8,29.79,NNW,340,6.0,6.0,89,0.00,,,0.02,0.00,VWS V14.01,2013-05-23 12:52:00,
2013-05-23 08:54:00,61.1,57.5,29.78,NNW,329,1.0,4.0,88,0.00,,,0.02,0.00,VWS V14.01,2013-05-23 12:54:00,
2013-05-23 08:55:00,61.1,57.5,29.79,NNW,329,0.0,0.0,88,0.00,,,0.02,0.00,VWS V14.01,2013-05-23 12:55:00,
2013-05-23 08:57:00,61.1,57.5,29.79,WNW,299,0.0,1.0,88,0.00,,,0.02,0.00,VWS V14.01,2013-05-23 12:57:00,
2013-05-23 08:59:00,61.1,57.5,29.79,NW,314,1.0,3.0,88,0.00,,,0.02,0.00,VWS V14.01,2013-05-23 12:59:00,
2013-05-23 09:00:00,61.1,57.5,29.79,WNW,298,0.0,0.0,88,0.00,,,0.02,0.00,VWS V14.01,2013-05-23 13:00:00,
2013-05-23 09:01:00,61.1,57.5,29.79,WNW,298,0.0,1.0,88,0.00,,,0.02,0.00,VWS V14.01,2013-05-23 13:01:00,
2013-05-23 09:02:00,61.1,57.5,29.79,North,350,0.0,9.0,88,0.00,,,0.02,0.00,VWS V14.01,2013-05-23 13:02:00,
2013-05-23 09:04:00,61.2,57.3,29.79,North,349,0.0,0.0,87,0.00,,,0.02,0.00,VWS V14.01,2013-05-23 13:04:00,
2013-05-23 09:05:00,61.2,57.6,29.79,NW,315,0.0,0.0,88,0.00,,,0.02,0.00,VWS V14.01,2013-05-23 13:05:00,
2013-05-23 09:06:00,61.2,57.6,29.79,NW,315,3.0,3.0,88,0.00,,,0.02,0.00,VWS V14.01,2013-05-23 13:06:00,
2013-05-23 09:07:00,61.2,57.6,29.79,NW,321,2.0,6.0,88,0.00,,,0.02,0.00,VWS V14.01,2013-05-23 13:07:00,
2013-05-23 09:09:00,61.2,57.3,29.79,NW,321,0.0,3.0,87,0.00,,,0.02,0.00,VWS V14.01,2013-05-23 13:09:00,
2013-05-23 09:10:00,61.2,57.3,29.79,NW,319,0.0,4.0,87,0.00,,,0.02,0.00,VWS V14.01,2013-05-23 13:10:00,
2013-05-23 09:11:00,61.2,57.3,29.79,NW,319,3.0,4.0,87,0.00,,,0.02,0.00,VWS V14.01,2013-05-23 13:11:00,
2013-05-23 09:12:00,61.2,57.3,29.79,North,5,1.0,1.0,87,0.00,,,0.02,0.00,VWS V14.01,2013-05-23 13:12:00,
2013-05-23 09:14:00,61.2,57.6,29.80,West,274,5.0,5.0,88,0.00,,,0.02,0.00,VWS V14.01,2013-05-23 13:14:00,
2013-05-23 09:15:00,61.2,57.6,29.79,WNW,298,2.0,4.0,88,0.00,,,0.02,0.00,VWS V14.01,2013-05-23 13:15:00,
2013-05-23 09:16:00,61.2,57.6,29.79,West,259,3.0,4.0,88,0.00,,,0.02,0.00,VWS V14.01,2013-05-23 13:16:00,
2013-05-23 09:17:00,61.2,57.3,29.80,WNW,288,8.0,8.0,87,0.00,,,0.02,0.00,VWS V14.01,2013-05-23 13:17:00,
2013-05-23 09:19:00,61.1,57.2,29.80,WNW,296,3.0,7.0,87,0.00,,,0.02,0.00,VWS V14.01,2013-05-23 13:19:00,
2013-05-23 09:20:00,61.1,57.2,29.80,North,355,3.0,5.0,87,0.00,,,0.02,0.00,VWS V14.01,2013-05-23 13:20:00,
2013-05-23 09:21:00,61.1,57.2,29.80,NW,323,3.0,7.0,87,0.00,,,0.02,0.00,VWS V14.01,2013-05-23 13:21:00,
2013-05-23 09:22:00,61.1,57.2,29.80,NNE,13,6.0,6.0,87,0.00,,,0.02,0.00,VWS V14.01,2013-05-23 13:22:00,
2013-05-23 09:24:00,61.1,57.2,29.80,North,355,4.0,5.0,87,0.00,,,0.02,0.00,VWS V14.01,2013-05-23 13:24:00,
2013-05-23 09:25:00,61.1,57.2,29.80,North,355,0.0,1.0,87,0.00,,,0.02,0.00,VWS V14.01,2013-05-23 13:25:00,
2013-05-23 09:26:00,61.1,57.5,29.80,NNW,335,0.0,3.0,88,0.00,,,0.02,0.00,VWS V14.01,2013-05-23 13:26:00,
2013-05-23 09:27:00,61.1,57.5,29.80,NNW,339,3.0,3.0,88,0.00,,,0.02,0.00,VWS V14.01,2013-05-23 13:27:00,
2013-05-23 09:30:00,61.1,57.5,29.80,NNW,339,1.0,1.0,88,0.00,,,0.02,0.00,VWS V14.01,2013-05-23 13:30:00,
2013-05-23 09:32:00,61.1,57.5,29.80,NNW,339,0.0,1.0,88,0.00,,,0.02,0.00,VWS V14.01,2013-05-23 13:32:00,
2013-05-23 09:33:00,61.1,57.5,29.80,NNW,339,0.0,0.0,88,0.00,,,0.02,0.00,VWS V14.01,2013-05-23 13:33:00,
2013-05-23 09:35:00,61.1,57.5,29.80,NNW,348,3.0,7.0,88,0.00,,,0.02,0.00,VWS V14.01,2013-05-23 13:35:00,
2013-05-23 09:36:00,61.1,57.5,29.80,WNW,294,4.0,10.0,88,0.00,,,0.02,0.00,VWS V14.01,2013-05-23 13:36:00,
2013-05-23 09:37:00,61.1,57.5,29.80,NW,313,3.0,4.0,88,0.00,,,0.02,0.00,VWS V14.01,2013-05-23 13:37:00,
2013-05-23 09:38:00,61.0,57.4,29.80,NW,321,2.0,2.0,88,0.00,,,0.02,0.00,VWS V14.01,2013-05-23 13:38:00,
2013-05-23 09:40:00,60.9,57.3,29.80,North,5,4.0,9.0,88,0.00,,,0.02,0.00,VWS V14.01,2013-05-23 13:40:00,
2013-05-23 09:41:00,60.9,57.3,29.80,North,355,1.0,8.0,88,0.00,,,0.02,0.00,VWS V14.01,2013-05-23 13:41:00,
2013-05-23 09:42:00,60.9,57.3,29.81,NW,310,7.0,7.0,88,0.00,,,0.02,0.00,VWS V14.01,2013-05-23 13:42:00,
2013-05-23 09:43:00,60.8,57.2,29.81,NW,308,0.0,0.0,88,0.00,,,0.02,0.00,VWS V14.01,2013-05-23 13:43:00,
2013-05-23 09:45:00,60.8,57.2,29.81,NNW,348,7.0,8.0,88,0.00,,,0.02,0.00,VWS V14.01,2013-05-23 13:45:00,
2013-05-23 09:46:00,60.8,57.2,29.81,WNW,284,0.0,8.0,88,0.00,,,0.02,0.00,VWS V14.01,2013-05-23 13:46:00,
2013-05-23 09:47:00,60.7,57.1,29.81,NNW,347,1.0,6.0,88,0.00,,,0.02,0.00,VWS V14.01,2013-05-23 13:47:00,
2013-05-23 09:48:00,60.7,57.1,29.81,NW,304,5.0,5.0,88,0.00,,,0.02,0.00,VWS V14.01,2013-05-23 13:48:00,
2013-05-23 09:50:00,60.7,57.1,29.81,NNW,329,2.0,2.0,88,0.00,,,0.02,0.00,VWS V14.01,2013-05-23 13:50:00,
2013-05-23 09:51:00,60.7,57.1,29.81,NNW,331,0.0,0.0,88,0.01,,,0.03,0.00,VWS V14.01,2013-05-23 13:51:00,
2013-05-23 09:52:00,60.7,57.1,29.81,NNW,331,0.0,1.0,88,0.01,,,0.03,0.00,VWS V14.01,2013-05-23 13:52:00,
2013-05-23 09:53:00,60.7,57.4,29.81,NNW,331,0.0,1.0,89,0.01,,,0.03,0.00,VWS V14.01,2013-05-23 13:53:00,
2013-05-23 09:55:00,60.7,57.1,29.81,NNW,338,0.0,1.0,88,0.01,,,0.03,0.00,VWS V14.01,2013-05-23 13:55:00,
2013-05-23 09:56:00,60.7,57.1,29.81,NNW,338,1.0,3.0,88,0.01,,,0.03,0.00,VWS V14.01,2013-05-23 13:56:00,
2013-05-23 09:57:00,60.7,57.1,29.81,WNW,301,1.0,2.0,88,0.01,,,0.03,0.00,VWS V14.01,2013-05-23 13:57:00,
2013-05-23 09:58:00,60.8,57.5,29.81,NNW,342,1.0,1.0,89,0.01,,,0.03,0.00,VWS V14.01,2013-05-23 13:58:00,
2013-05-23 10:00:00,60.8,57.5,29.81,NNW,333,2.0,4.0,89,0.01,,,0.03,0.00,VWS V14.01,2013-05-23 14:00:00,
2013-05-23 10:01:00,60.7,57.4,29.81,NW,311,1.0,4.0,89,0.01,,,0.03,0.00,VWS V14.01,2013-05-23 14:01:00,
2013-05-23 10:02:00,60.8,57.5,29.81,WNW,299,1.0,2.0,89,0.01,,,0.03,0.00,VWS V14.01,2013-05-23 14:02:00,
2013-05-23 10:03:00,60.7,57.4,29.81,WNW,293,1.0,4.0,89,0.01,,,0.03,0.00,VWS V14.01,2013-05-23 14:03:00,
2013-05-23 10:05:00,60.6,57.7,29.81,North,355,7.0,10.0,90,0.01,,,0.03,0.00,VWS V14.01,2013-05-23 14:05:00,
2013-05-23 10:06:00,60.5,57.6,29.81,NW,309,0.0,0.0,90,0.01,,,0.03,0.00,VWS V14.01,2013-05-23 14:06:00,
2013-05-23 10:07:00,60.5,57.6,29.81,NW,309,0.0,0.0,90,0.01,,,0.03,0.00,VWS V14.01,2013-05-23 14:07:00,
2013-05-23 10:08:00,60.5,57.9,29.81,NNW,337,0.0,1.0,91,0.01,,,0.03,0.00,VWS V14.01,2013-05-23 14:08:00,
2013-05-23 10:10:00,60.4,57.8,29.81,North,5,0.0,1.0,91,0.01,,,0.03,0.00,VWS V14.01,2013-05-23 14:10:00,
2013-05-23 10:11:00,60.4,57.8,29.81,North,5,0.0,1.0,91,0.01,,,0.03,0.00,VWS V14.01,2013-05-23 14:11:00,
2013-05-23 10:12:00,60.4,58.1,29.81,North,5,0.0,2.0,92,0.01,,,0.03,0.00,VWS V14.01,2013-05-23 14:12:00,
2013-05-23 10:13:00,60.3,58.0,29.81,NNW,346,0.0,2.0,92,0.01,,,0.03,0.00,VWS V14.01,2013-05-23 14:13:00,
2013-05-23 10:15:00,60.3,58.0,29.81,North,9,2.0,5.0,92,0.01,,,0.03,0.00,VWS V14.01,2013-05-23 14:15:00,
2013-05-23 10:16:00,60.3,58.0,29.81,North,10,4.0,5.0,92,0.01,,,0.03,0.00,VWS V14.01,2013-05-23 14:16:00,
2013-05-23 10:17:00,60.3,58.0,29.81,North,10,1.0,4.0,92,0.01,,,0.03,0.00,VWS V14.01,2013-05-23 14:17:00,
2013-05-23 10:18:00,60.3,58.0,29.81,NE,34,0.0,1.0,92,0.01,,,0.03,0.00,VWS V14.01,2013-05-23 14:18:00,
2013-05-23 10:20:00,60.5,58.5,29.81,WNW,291,0.0,4.0,93,0.01,,,0.03,0.00,VWS V14.01,2013-05-23 14:20:00,
2013-05-23 10:21:00,60.5,58.2,29.81,WNW,303,1.0,3.0,92,0.01,,,0.03,0.00,VWS V14.01,2013-05-23 14:21:00,
2013-05-23 10:22:00,60.5,58.2,29.81,WNW,303,0.0,0.0,92,0.01,,,0.03,0.00,VWS V14.01,2013-05-23 14:22:00,
2013-05-23 10:23:00,60.6,58.3,29.81,NW,312,2.0,4.0,92,0.01,,,0.03,0.00,VWS V14.01,2013-05-23 14:23:00,
2013-05-23 10:25:00,60.6,58.3,29.81,WNW,288,3.0,9.0,92,0.01,,,0.03,0.00,VWS V14.01,2013-05-23 14:25:00,
2013-05-23 10:26:00,60.6,58.0,29.81,North,350,3.0,6.0,91,0.01,,,0.03,0.00,VWS V14.01,2013-05-23 14:26:00,
2013-05-23 10:27:00,60.7,58.1,29.81,NNW,344,2.0,3.0,91,0.01,,,0.03,0.00,VWS V14.01,2013-05-23 14:27:00,
2013-05-23 10:28:00,60.7,58.4,29.81,North,360,2.0,8.0,92,0.01,,,0.03,0.00,VWS V14.01,2013-05-23 14:28:00,
2013-05-23 10:30:00,60.9,58.6,29.81,North,355,2.0,2.0,92,0.01,,,0.03,0.00,VWS V14.01,2013-05-23 14:30:00,
2013-05-23 10:31:00,60.9,58.6,29.81,NW,324,0.0,1.0,92,0.01,,,0.03,0.00,VWS V14.01,2013-05-23 14:31:00,
2013-05-23 10:32:00,61.1,58.8,29.81,NNW,347,2.0,5.0,92,0.01,,,0.03,0.00,VWS V14.01,2013-05-23 14:32:00,
2013-05-23 10:33:00,61.1,58.8,29.81,NNW,347,0.0,2.0,92,0.01,,,0.03,0.00,VWS V14.01,2013-05-23 14:33:00,
2013-05-23 10:35:00,61.3,59.0,29.81,NNW,337,2.0,4.0,92,0.01,,,0.03,0.00,VWS V14.01,2013-05-23 14:35:00,
2013-05-23 10:36:00,61.3,58.7,29.81,North,360,6.0,8.0,91,0.01,,,0.03,0.00,VWS V14.01,2013-05-23 14:36:00,
2013-05-23 10:37:00,61.3,58.7,29.81,North,355,0.0,3.0,91,0.01,,,0.03,0.00,VWS V14.01,2013-05-23 14:37:00,
2013-05-23 10:38:00,61.3,58.3,29.81,West,272,2.0,7.0,90,0.01,,,0.03,0.00,VWS V14.01,2013-05-23 14:38:00,
2013-05-23 10:40:00,61.3,58.3,29.81,North,349,6.0,8.0,90,0.01,,,0.03,0.00,VWS V14.01,2013-05-23 14:40:00,
2013-05-23 10:41:00,61.3,58.3,29.81,North,355,1.0,5.0,90,0.01,,,0.03,0.00,VWS V14.01,2013-05-23 14:41:00,
2013-05-23 10:42:00,61.3,58.3,29.81,NE,46,0.0,5.0,90,0.01,,,0.03,0.00,VWS V14.01,2013-05-23 14:42:00,
2013-05-23 10:43:00,61.3,58.3,29.81,NNE,17,4.0,8.0,90,0.01,,,0.03,0.00,VWS V14.01,2013-05-23 14:43:00,
2013-05-23 10:44:00,61.3,58.3,29.81,North,5,5.0,8.0,90,0.01,,,0.03,0.00,VWS V14.01,2013-05-23 14:44:00,
2013-05-23 10:46:00,61.3,58.3,29.81,West,265,4.0,4.0,90,0.01,,,0.03,0.00,VWS V14.01,2013-05-23 14:46:00,
2013-05-23 10:47:00,61.2,58.2,29.81,WNW,294,1.0,5.0,90,0.01,,,0.03,0.00,VWS V14.01,2013-05-23 14:47:00,
2013-05-23 10:49:00,61.2,58.2,29.81,WNW,289,1.0,1.0,90,0.01,,,0.03,0.00,VWS V14.01,2013-05-23 14:49:00,
2013-05-23 10:51:00,61.3,58.3,29.81,NNW,344,4.0,10.0,90,0.01,,,0.03,0.00,VWS V14.01,2013-05-23 14:51:00,
2013-05-23 10:52:00,61.2,58.2,29.81,North,355,0.0,5.0,90,0.00,,,0.03,0.00,VWS V14.01,2013-05-23 14:52:00,
2013-05-23 10:53:00,61.3,58.3,29.81,North,355,0.0,2.0,90,0.00,,,0.03,0.00,VWS V14.01,2013-05-23 14:53:00,
2013-05-23 10:54:00,61.4,58.8,29.81,North,355,0.0,1.0,91,0.00,,,0.03,0.00,VWS V14.01,2013-05-23 14:54:00,
2013-05-23 10:56:00,61.4,58.5,29.81,NNW,329,1.0,4.0,90,0.00,,,0.03,0.00,VWS V14.01,2013-05-23 14:56:00,
2013-05-23 10:57:00,61.5,58.5,29.81,NNW,329,2.0,4.0,90,0.00,,,0.03,0.00,VWS V14.01,2013-05-23 14:57:00,
2013-05-23 10:58:00,61.5,58.2,29.81,West,281,0.0,6.0,89,0.00,,,0.03,0.00,VWS V14.01,2013-05-23 14:58:00,
2013-05-23 10:59:00,61.5,58.2,29.81,North,5,0.0,8.0,89,0.00,,,0.03,0.00,VWS V14.01,2013-05-23 14:59:00,
2013-05-23 11:01:00,61.6,58.3,29.81,NNE,17,1.0,5.0,89,0.00,,,0.03,0.00,VWS V14.01,2013-05-23 15:01:00,
2013-05-23 11:02:00,61.6,58.3,29.81,NNW,329,1.0,4.0,89,0.00,,,0.03,0.00,VWS V14.01,2013-05-23 15:02:00,
2013-05-23 11:03:00,61.7,58.4,29.81,NNW,329,2.0,4.0,89,0.00,,,0.03,0.00,VWS V14.01,2013-05-23 15:03:00,
2013-05-23 11:04:00,61.7,58.4,29.81,NNW,329,1.0,4.0,89,0.00,,,0.03,0.00,VWS V14.01,2013-05-23 15:04:00,
2013-05-23 11:06:00,61.7,58.1,29.81,NNW,333,1.0,3.0,88,0.00,,,0.03,0.00,VWS V14.01,2013-05-23 15:06:00,
2013-05-23 11:07:00,61.7,58.1,29.81,NNW,333,3.0,3.0,88,0.00,,,0.03,0.00,VWS V14.01,2013-05-23 15:07:00,
2013-05-23 11:08:00,61.6,58.0,29.81,NNW,333,0.0,0.0,88,0.00,,,0.03,0.00,VWS V14.01,2013-05-23 15:08:00,
2013-05-23 11:09:00,61.6,58.3,29.81,North,350,1.0,6.0,89,0.00,,,0.03,0.00,VWS V14.01,2013-05-23 15:09:00,
2013-05-23 11:11:00,61.6,58.3,29.81,NNW,330,0.0,2.0,89,0.00,,,0.03,0.00,VWS V14.01,2013-05-23 15:11:00,
2013-05-23 11:12:00,61.6,58.3,29.81,NNW,330,2.0,2.0,89,0.00,,,0.03,0.00,VWS V14.01,2013-05-23 15:12:00,
2013-05-23 11:13:00,61.7,58.4,29.81,WNW,296,0.0,5.0,89,0.00,,,0.03,0.00,VWS V14.01,2013-05-23 15:13:00,
2013-05-23 11:14:00,61.7,58.4,29.81,North,5,4.0,9.0,89,0.00,,,0.03,0.00,VWS V14.01,2013-05-23 15:14:00,
2013-05-23 11:16:00,61.7,58.1,29.81,North,349,4.0,5.0,88,0.00,,,0.03,0.00,VWS V14.01,2013-05-23 15:16:00,
2013-05-23 11:17:00,61.7,58.1,29.81,NE,49,0.0,5.0,88,0.00,,,0.03,0.00,VWS V14.01,2013-05-23 15:17:00,
2013-05-23 11:18:00,61.7,58.1,29.81,North,355,2.0,2.0,88,0.00,,,0.03,0.00,VWS V14.01,2013-05-23 15:18:00,
2013-05-23 11:19:00,61.7,58.1,29.81,NNE,21,4.0,5.0,88,0.00,,,0.03,0.00,VWS V14.01,2013-05-23 15:19:00,
2013-05-23 11:21:00,61.6,57.7,29.81,NNW,339,3.0,7.0,87,0.00,,,0.03,0.00,VWS V14.01,2013-05-23 15:21:00,
2013-05-23 11:22:00,61.6,57.7,29.81,North,351,5.0,6.0,87,0.00,,,0.03,0.00,VWS V14.01,2013-05-23 15:22:00,
2013-05-23 11:23:00,61.5,57.6,29.81,North,5,0.0,6.0,87,0.00,,,0.03,0.00,VWS V14.01,2013-05-23 15:23:00,
2013-05-23 11:24:00,61.4,57.5,29.81,North,11,4.0,4.0,87,0.00,,,0.03,0.00,VWS V14.01,2013-05-23 15:24:00,
2013-05-23 11:25:00,61.4,57.5,29.81,NW,311,4.0,4.0,87,0.00,,,0.03,0.00,VWS V14.01,2013-05-23 15:25:00,
2013-05-23 11:26:00,61.4,57.8,29.81,North,355,1.0,7.0,88,0.00,,,0.03,0.00,VWS V14.01,2013-05-23 15:26:00,
2013-05-23 11:27:00,61.3,57.7,29.81,North,355,2.0,3.0,88,0.00,,,0.03,0.00,VWS V14.01,2013-05-23 15:27:00,
2013-05-23 11:28:00,61.3,57.7,29.81,NW,314,2.0,10.0,88,0.00,,,0.03,0.00,VWS V14.01,2013-05-23 15:28:00,
2013-05-23 11:29:00,61.3,57.7,29.81,NNW,338,10.0,10.0,88,0.00,,,0.03,0.00,VWS V14.01,2013-05-23 15:29:00,
2013-05-23 11:30:00,61.3,57.4,29.81,NNW,337,4.0,10.0,87,0.00,,,0.03,0.00,VWS V14.01,2013-05-23 15:30:00,
2013-05-23 11:32:00,61.3,57.4,29.82,North,360,0.0,14.0,87,0.00,,,0.03,0.00,VWS V14.01,2013-05-23 15:32:00,
2013-05-23 11:33:00,61.3,57.4,29.81,NNW,328,7.0,8.0,87,0.00,,,0.03,0.00,VWS V14.01,2013-05-23 15:33:00,
2013-05-23 11:34:00,61.3,57.4,29.81,NNW,343,8.0,8.0,87,0.00,,,0.03,0.00,VWS V14.01,2013-05-23 15:34:00,
2013-05-23 11:35:00,61.3,57.4,29.81,NNW,335,1.0,8.0,87,0.00,,,0.03,0.00,VWS V14.01,2013-05-23 15:35:00,
2013-05-23 11:37:00,61.4,57.5,29.81,NNW,341,0.0,2.0,87,0.00,,,0.03,0.00,VWS V14.01,2013-05-23 15:37:00,
2013-05-23 11:38:00,61.6,58.0,29.81,NNW,348,3.0,3.0,88,0.00,,,0.03,0.00,VWS V14.01,2013-05-23 15:38:00,
2013-05-23 11:39:00,61.6,58.0,29.81,North,350,1.0,5.0,88,0.00,,,0.03,0.00,VWS V14.01,2013-05-23 15:39:00,
2013-05-23 11:40:00,61.6,57.7,29.81,NNW,347,0.0,5.0,87,0.00,,,0.03,0.00,VWS V14.01,2013-05-23 15:40:00,
2013-05-23 11:42:00,61.7,57.8,29.81,North,350,0.0,8.0,87,0.00,,,0.03,0.00,VWS V14.01,2013-05-23 15:42:00,
2013-05-23 11:44:00,61.8,57.9,29.81,WNW,299,1.0,5.0,87,0.00,,,0.03,0.00,VWS V14.01,2013-05-23 15:44:00,
2013-05-23 11:45:00,61.9,58.0,29.81,NW,318,2.0,2.0,87,0.00,,,0.03,0.00,VWS V14.01,2013-05-23 15:45:00,
2013-05-23 11:47:00,62.0,58.1,29.81,WNW,295,0.0,0.0,87,0.00,,,0.03,0.00,VWS V14.01,2013-05-23 15:47:00,
2013-05-23 11:49:00,62.1,57.9,29.82,North,5,2.0,6.0,86,0.00,,,0.03,0.00,VWS V14.01,2013-05-23 15:49:00,
2013-05-23 11:50:00,62.2,58.0,29.82,NW,313,4.0,10.0,86,0.00,,,0.03,0.00,VWS V14.01,2013-05-23 15:50:00,
2013-05-23 11:52:00,62.3,58.1,29.82,NW,321,3.0,5.0,86,0.00,,,0.03,0.00,VWS V14.01,2013-05-23 15:52:00,
2013-05-23 11:54:00,62.3,58.1,29.82,NE,37,3.0,6.0,86,0.00,,,0.03,0.00,VWS V14.01,2013-05-23 15:54:00,
2013-05-23 11:55:00,62.3,58.1,29.82,NE,38,1.0,2.0,86,0.00,,,0.03,0.00,VWS V14.01,2013-05-23 15:55:00,
2013-05-23 11:57:00,61.9,57.7,29.82,NE,42,6.0,12.0,86,0.00,,,0.03,0.00,VWS V14.01,2013-05-23 15:57:00,
2013-05-23 11:59:00,61.5,57.3,29.82,North,355,2.0,3.0,86,0.00,,,0.03,0.00,VWS V14.01,2013-05-23 15:59:00,
2013-05-23 12:00:00,61.2,57.3,29.82,NNE,27,1.0,2.0,87,0.00,,,0.03,0.00,VWS V14.01,2013-05-23 16:00:00,
2013-05-23 12:02:00,60.9,57.3,29.82,NNE,13,3.0,5.0,88,0.00,,,0.03,0.00,VWS V14.01,2013-05-23 16:02:00,
2013-05-23 12:04:00,60.6,57.0,29.82,North,351,1.0,1.0,88,0.00,,,0.03,0.00,VWS V14.01,2013-05-23 16:04:00,
2013-05-23 12:05:00,60.5,57.2,29.82,NNW,344,1.0,6.0,89,0.00,,,0.03,0.00,VWS V14.01,2013-05-23 16:05:00,
2013-05-23 12:07:00,60.3,57.0,29.82,North,11,4.0,5.0,89,0.00,,,0.03,0.00,VWS V14.01,2013-05-23 16:07:00,
2013-05-23 12:09:00,60.0,56.8,29.82,North,350,1.0,4.0,89,0.00,,,0.03,0.00,VWS V14.01,2013-05-23 16:09:00,
2013-05-23 12:10:00,59.9,57.0,29.83,NNW,344,4.0,5.0,90,0.00,,,0.03,0.00,VWS V14.01,2013-05-23 16:10:00,
2013-05-23 12:12:00,59.8,57.2,29.83,North,360,1.0,3.0,91,0.01,,,0.04,0.00,VWS V14.01,2013-05-23 16:12:00,
2013-05-23 12:14:00,59.7,57.4,29.83,NNE,22,2.0,7.0,92,0.01,,,0.04,0.00,VWS V14.01,2013-05-23 16:14:00,
2013-05-23 12:15:00,59.6,57.3,29.83,NNE,22,2.0,7.0,92,0.01,,,0.04,0.00,VWS V14.01,2013-05-23 16:15:00,
2013-05-23 12:17:00,59.7,57.7,29.83,NNE,20,1.0,1.0,93,0.01,,,0.04,0.00,VWS V14.01,2013-05-23 16:17:00,
2013-05-23 12:19:00,59.9,57.9,29.83,NNW,348,2.0,5.0,93,0.01,,,0.04,0.00,VWS V14.01,2013-05-23 16:19:00,
2013-05-23 12:20:00,59.9,57.9,29.83,NNW,348,0.0,5.0,93,0.01,,,0.04,0.00,VWS V14.01,2013-05-23 16:20:00,
2013-05-23 12:22:00,60.4,58.7,29.83,North,349,2.0,2.0,94,0.01,,,0.04,0.00,VWS V14.01,2013-05-23 16:22:00,
2013-05-23 12:24:00,60.7,59.0,29.83,NNE,26,7.0,7.0,94,0.01,,,0.04,0.00,VWS V14.01,2013-05-23 16:24:00,
2013-05-23 12:25:00,60.8,59.1,29.83,North,5,1.0,7.0,94,0.01,,,0.04,0.00,VWS V14.01,2013-05-23 16:25:00,
2013-05-23 12:27:00,61.1,59.1,29.83,North,9,1.0,4.0,93,0.01,,,0.04,0.00,VWS V14.01,2013-05-23 16:27:00,
2013-05-23 12:29:00,61.4,59.4,29.83,North,5,3.0,3.0,93,0.01,,,0.04,0.00,VWS V14.01,2013-05-23 16:29:00,
2013-05-23 12:30:00,61.5,59.5,29.83,North,5,4.0,4.0,93,0.01,,,0.04,0.00,VWS V14.01,2013-05-23 16:30:00,
2013-05-23 12:32:00,61.8,58.8,29.83,North,5,12.0,12.0,90,0.01,,,0.04,0.00,VWS V14.01,2013-05-23 16:32:00,
2013-05-23 12:34:00,62.1,58.8,29.83,NNW,340,3.0,4.0,89,0.01,,,0.04,0.00,VWS V14.01,2013-05-23 16:34:00,
2013-05-23 12:35:00,62.2,58.9,29.83,North,360,4.0,5.0,89,0.01,,,0.04,0.00,VWS V14.01,2013-05-23 16:35:00,
2013-05-23 12:37:00,62.5,58.3,29.83,North,9,7.0,9.0,86,0.01,,,0.04,0.00,VWS V14.01,2013-05-23 16:37:00,
2013-05-23 12:39:00,62.8,58.6,29.83,North,5,1.0,8.0,86,0.01,,,0.04,0.00,VWS V14.01,2013-05-23 16:39:00,
2013-05-23 12:40:00,62.9,58.3,29.83,North,360,6.0,6.0,85,0.01,,,0.04,0.00,VWS V14.01,2013-05-23 16:40:00,
2013-05-23 12:42:00,63.2,58.6,29.83,NW,308,3.0,6.0,85,0.01,,,0.04,0.00,VWS V14.01,2013-05-23 16:42:00,
2013-05-23 12:44:00,63.4,58.2,29.83,NW,324,4.0,8.0,83,0.01,,,0.04,0.00,VWS V14.01,2013-05-23 16:44:00,
2013-05-23 12:45:00,63.4,58.5,29.83,NNE,15,3.0,4.0,84,0.01,,,0.04,0.00,VWS V14.01,2013-05-23 16:45:00,
2013-05-23 12:47:00,63.6,58.7,29.83,NNW,348,2.0,8.0,84,0.01,,,0.04,0.00,VWS V14.01,2013-05-23 16:47:00,
2013-05-23 12:49:00,63.8,58.5,29.83,North,355,2.0,3.0,83,0.01,,,0.04,0.00,VWS V14.01,2013-05-23 16:49:00,
2013-05-23 12:50:00,63.8,58.9,29.83,NNW,344,4.0,7.0,84,0.01,,,0.04,0.00,VWS V14.01,2013-05-23 16:50:00,
2013-05-23 12:51:00,63.9,58.6,29.83,NE,47,5.0,7.0,83,0.01,,,0.04,0.00,VWS V14.01,2013-05-23 16:51:00,
2013-05-23 12:52:00,64.1,58.8,29.83,NNW,342,1.0,6.0,83,0.01,,,0.04,0.00,VWS V14.01,2013-05-23 16:52:00,
2013-05-23 12:54:00,64.4,58.1,29.83,NNE,21,9.0,9.0,80,0.01,,,0.04,0.00,VWS V14.01,2013-05-23 16:54:00,
2013-05-23 12:55:00,64.4,58.1,29.84,NW,305,4.0,8.0,80,0.01,,,0.04,0.00,VWS V14.01,2013-05-23 16:55:00,
2013-05-23 12:56:00,64.3,57.7,29.84,NNE,19,4.0,11.0,79,0.01,,,0.04,0.00,VWS V14.01,2013-05-23 16:56:00,
2013-05-23 12:57:00,64.1,57.5,29.84,NNE,21,8.0,11.0,79,0.01,,,0.04,0.00,VWS V14.01,2013-05-23 16:57:00,
2013-05-23 12:58:00,64.0,57.4,29.84,North,360,10.0,11.0,79,0.01,,,0.04,0.00,VWS V14.01,2013-05-23 16:58:00,
2013-05-23 13:00:00,63.6,57.0,29.84,North,5,4.0,10.0,79,0.01,,,0.04,0.00,VWS V14.01,2013-05-23 17:00:00,
2013-05-23 13:01:00,63.4,57.1,29.84,North,5,4.0,5.0,80,0.01,,,0.04,0.00,VWS V14.01,2013-05-23 17:01:00,
2013-05-23 13:02:00,63.3,57.0,29.84,NNW,348,5.0,11.0,80,0.01,,,0.04,0.00,VWS V14.01,2013-05-23 17:02:00,
2013-05-23 13:03:00,63.3,57.0,29.84,North,355,8.0,11.0,80,0.01,,,0.04,0.00,VWS V14.01,2013-05-23 17:03:00,
2013-05-23 13:05:00,63.1,56.5,29.84,NNW,330,2.0,6.0,79,0.01,,,0.04,0.00,VWS V14.01,2013-05-23 17:05:00,
2013-05-23 13:06:00,63.2,57.3,29.84,North,5,4.0,6.0,81,0.01,,,0.04,0.00,VWS V14.01,2013-05-23 17:06:00,
2013-05-23 13:07:00,63.1,56.8,29.84,ENE,71,4.0,13.0,80,0.01,,,0.04,0.00,VWS V14.01,2013-05-23 17:07:00,
2013-05-23 13:08:00,63.0,56.7,29.84,East,84,5.0,13.0,80,0.01,,,0.04,0.00,VWS V14.01,2013-05-23 17:08:00,
2013-05-23 13:10:00,62.7,56.5,29.84,NNE,17,5.0,6.0,80,0.01,,,0.04,0.00,VWS V14.01,2013-05-23 17:10:00,
2013-05-23 13:11:00,62.6,56.7,29.84,NNW,331,5.0,8.0,81,0.01,,,0.04,0.00,VWS V14.01,2013-05-23 17:11:00,
2013-05-23 13:13:00,62.5,56.6,29.84,North,355,4.0,9.0,81,0.00,,,0.04,0.00,VWS V14.01,2013-05-23 17:13:00,
2013-05-23 13:15:00,62.3,56.4,29.84,North,11,6.0,9.0,81,0.00,,,0.04,0.00,VWS V14.01,2013-05-23 17:15:00,
2013-05-23 13:16:00,62.2,56.3,29.84,NNW,343,5.0,7.0,81,0.00,,,0.04,0.00,VWS V14.01,2013-05-23 17:16:00,
2013-05-23 13:18:00,62.3,56.7,29.84,North,9,4.0,7.0,82,0.00,,,0.04,0.00,VWS V14.01,2013-05-23 17:18:00,
2013-05-23 13:20:00,62.4,57.2,29.83,NE,42,8.0,8.0,83,0.00,,,0.04,0.00,VWS V14.01,2013-05-23 17:20:00,
2013-05-23 13:21:00,62.4,56.5,29.83,NNE,28,5.0,11.0,81,0.00,,,0.04,0.00,VWS V14.01,2013-05-23 17:21:00,
2013-05-23 13:23:00,62.5,56.9,29.84,North,349,6.0,10.0,82,0.00,,,0.04,0.00,VWS V14.01,2013-05-23 17:23:00,
2013-05-23 13:25:00,62.4,56.5,29.84,North,9,8.0,14.0,81,0.00,,,0.04,0.00,VWS V14.01,2013-05-23 17:25:00,
2013-05-23 13:26:00,62.4,56.5,29.84,North,355,4.0,14.0,81,0.00,,,0.04,0.00,VWS V14.01,2013-05-23 17:26:00,
2013-05-23 13:28:00,62.3,56.7,29.84,North,355,5.0,8.0,82,0.00,,,0.04,0.00,VWS V14.01,2013-05-23 17:28:00,
2013-05-23 13:30:00,62.5,56.6,29.84,NE,37,5.0,8.0,81,0.00,,,0.04,0.00,VWS V14.01,2013-05-23 17:30:00,
2013-05-23 13:31:00,62.4,56.5,29.84,ENE,70,12.0,12.0,81,0.00,,,0.04,0.00,VWS V14.01,2013-05-23 17:31:00,
2013-05-23 13:33:00,62.2,56.0,29.84,North,5,2.0,4.0,80,0.00,,,0.04,0.00,VWS V14.01,2013-05-23 17:33:00,
2013-05-23 13:35:00,62.2,56.0,29.84,North,350,5.0,7.0,80,0.00,,,0.04,0.00,VWS V14.01,2013-05-23 17:35:00,
2013-05-23 13:36:00,62.2,56.0,29.84,North,9,2.0,5.0,80,0.00,,,0.04,0.00,VWS V14.01,2013-05-23 17:36:00,
2013-05-23 13:38:00,62.1,55.9,29.84,NNW,348,5.0,9.0,80,0.00,,,0.04,0.00,VWS V14.01,2013-05-23 17:38:00,
2013-05-23 13:40:00,62.0,55.8,29.84,North,360,8.0,8.0,80,0.00,,,0.04,0.00,VWS V14.01,2013-05-23 17:40:00,
2013-05-23 13:41:00,61.9,55.7,29.84,North,355,3.0,7.0,80,0.00,,,0.04,0.00,VWS V14.01,2013-05-23 17:41:00,
2013-05-23 13:43:00,61.8,55.6,29.84,NE,34,5.0,8.0,80,0.00,,,0.04,0.00,VWS V14.01,2013-05-23 17:43:00,
2013-05-23 13:45:00,61.7,55.5,29.85,NNE,30,4.0,4.0,80,0.00,,,0.04,0.00,VWS V14.01,2013-05-23 17:45:00,
2013-05-23 13:46:00,61.8,55.9,29.85,North,5,2.0,2.0,81,0.00,,,0.04,0.00,VWS V14.01,2013-05-23 17:46:00,
2013-05-23 13:48:00,62.0,56.1,29.85,NE,51,5.0,11.0,81,0.00,,,0.04,0.00,VWS V14.01,2013-05-23 17:48:00,
2013-05-23 13:50:00,62.1,55.9,29.85,NE,36,7.0,9.0,80,0.00,,,0.04,0.00,VWS V14.01,2013-05-23 17:50:00,
2013-05-23 13:51:00,61.9,55.7,29.84,NNE,13,3.0,7.0,80,0.00,,,0.04,0.00,VWS V14.01,2013-05-23 17:51:00,
2013-05-23 13:52:00,61.9,55.7,29.84,North,355,4.0,7.0,80,0.00,,,0.04,0.00,VWS V14.01,2013-05-23 17:52:00,
2013-05-23 13:53:00,61.9,55.7,29.85,North,9,4.0,10.0,80,0.00,,,0.04,0.00,VWS V14.01,2013-05-23 17:53:00,
2013-05-23 13:55:00,61.9,55.3,29.85,NNW,347,13.0,13.0,79,0.00,,,0.04,0.00,VWS V14.01,2013-05-23 17:55:00,
2013-05-23 13:56:00,61.7,55.1,29.85,NW,323,9.0,16.0,79,0.00,,,0.04,0.00,VWS V14.01,2013-05-23 17:56:00,
2013-05-23 13:57:00,61.6,55.0,29.85,NNW,348,13.0,16.0,79,0.00,,,0.04,0.00,VWS V14.01,2013-05-23 17:57:00,
2013-05-23 13:58:00,61.3,54.7,29.85,NNE,19,6.0,6.0,79,0.00,,,0.04,0.00,VWS V14.01,2013-05-23 17:58:00,
2013-05-23 13:59:00,61.2,54.6,29.85,North,9,5.0,11.0,79,0.00,,,0.04,0.00,VWS V14.01,2013-05-23 17:59:00,
2013-05-23 14:00:00,61.1,54.5,29.85,NNW,347,3.0,3.0,79,0.00,,,0.04,0.00,VWS V14.01,2013-05-23 18:00:00,
2013-05-23 14:01:00,61.0,54.8,29.85,NNE,22,7.0,7.0,80,0.00,,,0.04,0.00,VWS V14.01,2013-05-23 18:01:00,
2013-05-23 14:02:00,61.0,54.8,29.85,North,360,6.0,8.0,80,0.00,,,0.04,0.00,VWS V14.01,2013-05-23 18:02:00,
2013-05-23 14:03:00,61.0,54.5,29.85,North,355,5.0,5.0,79,0.00,,,0.04,0.00,VWS V14.01,2013-05-23 18:03:00,
2013-05-23 14:04:00,61.0,55.1,29.85,North,5,7.0,10.0,81,0.00,,,0.04,0.00,VWS V14.01,2013-05-23 18:04:00,
2013-05-23 14:05:00,61.0,54.5,29.85,NNE,27,3.0,7.0,79,0.00,,,0.04,0.00,VWS V14.01,2013-05-23 18:05:00,
2013-05-23 14:06:00,61.1,54.5,29.85,NE,36,5.0,7.0,79,0.00,,,0.04,0.00,VWS V14.01,2013-05-23 18:06:00,
2013-05-23 14:07:00,61.1,54.5,29.85,ENE,69,1.0,7.0,79,0.00,,,0.04,0.00,VWS V14.01,2013-05-23 18:07:00,
2013-05-23 14:08:00,61.2,55.0,29.85,NNW,345,6.0,6.0,80,0.00,,,0.04,0.00,VWS V14.01,2013-05-23 18:08:00,
2013-05-23 14:09:00,61.3,55.4,29.85,NW,316,8.0,8.0,81,0.00,,,0.04,0.00,VWS V14.01,2013-05-23 18:09:00,
2013-05-23 14:10:00,61.3,54.7,29.85,North,360,6.0,12.0,79,0.00,,,0.04,0.00,VWS V14.01,2013-05-23 18:10:00,
2013-05-23 14:11:00,61.4,54.8,29.85,NNE,26,5.0,10.0,79,0.00,,,0.04,0.00,VWS V14.01,2013-05-23 18:11:00,
2013-05-23 14:12:00,61.4,54.8,29.85,NNW,338,3.0,10.0,79,0.00,,,0.04,0.00,VWS V14.01,2013-05-23 18:12:00,
2013-05-23 14:13:00,61.4,54.5,29.85,NNE,26,2.0,5.0,78,0.00,,,0.04,0.00,VWS V14.01,2013-05-23 18:13:00,
2013-05-23 14:14:00,61.3,54.4,29.85,NNE,13,6.0,6.0,78,0.00,,,0.04,0.00,VWS V14.01,2013-05-23 18:14:00,
2013-05-23 14:15:00,61.3,54.7,29.86,NNW,335,10.0,10.0,79,0.00,,,0.04,0.00,VWS V14.01,2013-05-23 18:15:00,
2013-05-23 14:16:00,61.2,54.3,29.86,North,5,3.0,7.0,78,0.00,,,0.04,0.00,VWS V14.01,2013-05-23 18:16:00,
2013-05-23 14:17:00,61.2,54.6,29.86,North,9,5.0,5.0,79,0.00,,,0.04,0.00,VWS V14.01,2013-05-23 18:17:00,
2013-05-23 14:18:00,61.4,55.2,29.86,North,360,4.0,5.0,80,0.00,,,0.04,0.00,VWS V14.01,2013-05-23 18:18:00,
2013-05-23 14:19:00,61.5,54.6,29.86,NNW,342,3.0,4.0,78,0.00,,,0.04,0.00,VWS V14.01,2013-05-23 18:19:00,
2013-05-23 14:20:00,61.6,54.7,29.86,North,11,2.0,12.0,78,0.00,,,0.04,0.00,VWS V14.01,2013-05-23 18:20:00,
2013-05-23 14:22:00,61.6,54.3,29.86,NE,42,3.0,9.0,77,0.00,,,0.04,0.00,VWS V14.01,2013-05-23 18:22:00,
2013-05-23 14:23:00,61.6,54.3,29.86,NE,40,2.0,7.0,77,0.00,,,0.04,0.00,VWS V14.01,2013-05-23 18:23:00,
2013-05-23 14:24:00,61.7,54.8,29.86,NE,47,5.0,12.0,78,0.00,,,0.04,0.00,VWS V14.01,2013-05-23 18:24:00,
2013-05-23 14:25:00,61.7,54.4,29.86,North,360,3.0,6.0,77,0.00,,,0.04,0.00,VWS V14.01,2013-05-23 18:25:00,
2013-05-23 14:27:00,61.9,55.0,29.86,NNE,29,7.0,13.0,78,0.00,,,0.04,0.00,VWS V14.01,2013-05-23 18:27:00,
2013-05-23 14:28:00,62.0,54.4,29.86,NNE,32,7.0,9.0,76,0.00,,,0.04,0.00,VWS V14.01,2013-05-23 18:28:00,
2013-05-23 14:29:00,62.0,54.4,29.86,NNE,30,4.0,6.0,76,0.00,,,0.04,0.00,VWS V14.01,2013-05-23 18:29:00,
2013-05-23 14:30:00,62.0,54.4,29.86,NE,46,11.0,11.0,76,0.00,,,0.04,0.00,VWS V14.01,2013-05-23 18:30:00,
2013-05-23 14:32:00,61.8,53.8,29.86,NE,39,4.0,13.0,75,0.00,,,0.04,0.00,VWS V14.01,2013-05-23 18:32:00,
2013-05-23 14:33:00,61.6,53.6,29.86,NNE,19,2.0,9.0,75,0.00,,,0.04,0.00,VWS V14.01,2013-05-23 18:33:00,
2013-05-23 14:34:00,61.5,53.9,29.86,NNE,32,3.0,8.0,76,0.00,,,0.04,0.00,VWS V14.01,2013-05-23 18:34:00,
2013-05-23 14:35:00,61.3,53.7,29.86,NE,36,7.0,10.0,76,0.00,,,0.04,0.00,VWS V14.01,2013-05-23 18:35:00,
2013-05-23 14:37:00,61.1,53.5,29.86,NNW,346,7.0,11.0,76,0.00,,,0.04,0.00,VWS V14.01,2013-05-23 18:37:00,
2013-05-23 14:38:00,60.9,53.3,29.86,NNW,348,11.0,11.0,76,0.00,,,0.04,0.00,VWS V14.01,2013-05-23 18:38:00,
2013-05-23 14:39:00,60.7,53.1,29.87,NNE,13,5.0,8.0,76,0.00,,,0.04,0.00,VWS V14.01,2013-05-23 18:39:00,
2013-05-23 14:40:00,60.5,53.3,29.86,NE,48,6.0,8.0,77,0.00,,,0.04,0.00,VWS V14.01,2013-05-23 18:40:00,
2013-05-23 14:42:00,60.4,53.2,29.86,NNE,30,2.0,5.0,77,0.00,,,0.04,0.00,VWS V14.01,2013-05-23 18:42:00,
2013-05-23 14:43:00,60.3,53.1,29.86,NNE,13,5.0,9.0,77,0.00,,,0.04,0.00,VWS V14.01,2013-05-23 18:43:00,
2013-05-23 14:44:00,60.1,52.9,29.86,North,349,4.0,6.0,77,0.00,,,0.04,0.00,VWS V14.01,2013-05-23 18:44:00,
2013-05-23 14:45:00,60.0,53.1,29.87,North,355,8.0,10.0,78,0.00,,,0.04,0.00,VWS V14.01,2013-05-23 18:45:00,
2013-05-23 14:47:00,59.8,53.3,29.87,NNE,19,13.0,13.0,79,0.00,,,0.04,0.00,VWS V14.01,2013-05-23 18:47:00,
2013-05-23 14:48:00,59.6,52.7,29.87,NE,34,8.0,12.0,78,0.00,,,0.04,0.00,VWS V14.01,2013-05-23 18:48:00,
2013-05-23 14:49:00,59.5,53.0,29.87,North,360,6.0,6.0,79,0.00,,,0.04,0.00,VWS V14.01,2013-05-23 18:49:00,
2013-05-23 14:50:00,59.4,52.9,29.87,NNE,12,9.0,13.0,79,0.00,,,0.04,0.00,VWS V14.01,2013-05-23 18:50:00,
2013-05-23 14:52:00,59.3,52.8,29.87,NE,55,7.0,10.0,79,0.00,,,0.04,0.00,VWS V14.01,2013-05-23 18:52:00,
2013-05-23 14:53:00,59.2,52.3,29.87,NNW,341,8.0,8.0,78,0.00,,,0.04,0.00,VWS V14.01,2013-05-23 18:53:00,
2013-05-23 14:54:00,59.3,52.8,29.87,NNE,32,7.0,8.0,79,0.00,,,0.04,0.00,VWS V14.01,2013-05-23 18:54:00,
2013-05-23 14:56:00,59.3,52.8,29.87,NNE,22,3.0,4.0,79,0.00,,,0.04,0.00,VWS V14.01,2013-05-23 18:56:00,
2013-05-23 14:57:00,59.4,52.5,29.87,NW,319,2.0,5.0,78,0.00,,,0.04,0.00,VWS V14.01,2013-05-23 18:57:00,
2013-05-23 14:58:00,59.3,52.5,29.87,NNE,15,3.0,7.0,78,0.00,,,0.04,0.00,VWS V14.01,2013-05-23 18:58:00,
2013-05-23 14:59:00,59.3,52.8,29.87,North,360,7.0,7.0,79,0.00,,,0.04,0.00,VWS V14.01,2013-05-23 18:59:00,
2013-05-23 15:01:00,59.3,52.5,29.87,NNW,348,1.0,6.0,78,0.00,,,0.04,0.00,VWS V14.01,2013-05-23 19:01:00,
2013-05-23 15:02:00,59.2,52.3,29.87,NNE,19,5.0,10.0,78,0.00,,,0.04,0.00,VWS V14.01,2013-05-23 19:02:00,
2013-05-23 15:03:00,59.1,52.3,29.87,NNE,17,4.0,8.0,78,0.00,,,0.04,0.00,VWS V14.01,2013-05-23 19:03:00,
2013-05-23 15:04:00,59.0,52.2,29.87,NE,42,3.0,7.0,78,0.00,,,0.04,0.00,VWS V14.01,2013-05-23 19:04:00,
2013-05-23 15:06:00,59.0,52.5,29.88,North,5,7.0,7.0,79,0.00,,,0.04,0.00,VWS V14.01,2013-05-23 19:06:00,
2013-05-23 15:07:00,59.0,52.2,29.88,North,360,9.0,9.0,78,0.00,,,0.04,0.00,VWS V14.01,2013-05-23 19:07:00,
2013-05-23 15:08:00,59.0,52.5,29.88,NNE,19,0.0,4.0,79,0.00,,,0.04,0.00,VWS V14.01,2013-05-23 19:08:00,
2013-05-23 15:09:00,59.0,52.5,29.88,NE,46,6.0,9.0,79,0.00,,,0.04,0.00,VWS V14.01,2013-05-23 19:09:00,
2013-05-23 15:11:00,59.0,52.2,29.88,NNE,16,7.0,9.0,78,0.00,,,0.04,0.00,VWS V14.01,2013-05-23 19:11:00,
2013-05-23 15:12:00,59.0,51.8,29.88,NE,43,4.0,7.0,77,0.00,,,0.04,0.00,VWS V14.01,2013-05-23 19:12:00,
2013-05-23 15:14:00,58.9,51.7,29.88,NNE,19,5.0,9.0,77,0.00,,,0.04,0.00,VWS V14.01,2013-05-23 19:14:00,
2013-05-23 15:16:00,58.8,52.0,29.88,North,355,2.0,2.0,78,0.00,,,0.04,0.00,VWS V14.01,2013-05-23 19:16:00,
2013-05-23 15:17:00,58.8,52.3,29.88,NE,39,5.0,12.0,79,0.00,,,0.04,0.00,VWS V14.01,2013-05-23 19:17:00,
2013-05-23 15:19:00,58.8,52.0,29.88,NE,45,10.0,10.0,78,0.00,,,0.04,0.00,VWS V14.01,2013-05-23 19:19:00,
2013-05-23 15:21:00,58.4,51.9,29.89,NNE,30,7.0,7.0,79,0.00,,,0.04,0.00,VWS V14.01,2013-05-23 19:21:00,
2013-05-23 15:22:00,58.1,51.3,29.89,NE,54,9.0,9.0,78,0.00,,,0.04,0.00,VWS V14.01,2013-05-23 19:22:00,
2013-05-23 15:24:00,58.0,51.5,29.89,North,360,4.0,5.0,79,0.00,,,0.04,0.00,VWS V14.01,2013-05-23 19:24:00,
2013-05-23 15:25:00,57.8,51.7,29.89,NE,53,6.0,7.0,80,0.00,,,0.04,0.00,VWS V14.01,2013-05-23 19:25:00,
2013-05-23 15:26:00,57.7,51.6,29.89,North,360,3.0,8.0,80,0.00,,,0.04,0.00,VWS V14.01,2013-05-23 19:26:00,
2013-05-23 15:27:00,57.6,51.5,29.89,North,5,9.0,9.0,80,0.00,,,0.04,0.00,VWS V14.01,2013-05-23 19:27:00,
2013-05-23 15:29:00,57.5,51.4,29.89,NNW,345,6.0,6.0,80,0.00,,,0.04,0.00,VWS V14.01,2013-05-23 19:29:00,
2013-05-23 15:30:00,57.5,51.4,29.89,North,11,2.0,4.0,80,0.00,,,0.04,0.00,VWS V14.01,2013-05-23 19:30:00,
2013-05-23 15:31:00,57.4,51.3,29.89,North,355,5.0,6.0,80,0.00,,,0.04,0.00,VWS V14.01,2013-05-23 19:31:00,
2013-05-23 15:32:00,57.3,51.2,29.89,North,360,5.0,8.0,80,0.00,,,0.04,0.00,VWS V14.01,2013-05-23 19:32:00,
2013-05-23 15:34:00,57.3,51.2,29.89,NNW,344,6.0,6.0,80,0.00,,,0.04,0.00,VWS V14.01,2013-05-23 19:34:00,
2013-05-23 15:35:00,57.3,51.2,29.89,NNE,17,0.0,2.0,80,0.00,,,0.04,0.00,VWS V14.01,2013-05-23 19:35:00,
2013-05-23 15:36:00,57.3,51.5,29.89,NE,36,5.0,8.0,81,0.00,,,0.04,0.00,VWS V14.01,2013-05-23 19:36:00,
2013-05-23 15:37:00,57.3,51.2,29.90,North,5,5.0,9.0,80,0.00,,,0.04,0.00,VWS V14.01,2013-05-23 19:37:00,
2013-05-23 15:39:00,57.4,51.3,29.90,NNE,24,4.0,4.0,80,0.00,,,0.04,0.00,VWS V14.01,2013-05-23 19:39:00,
2013-05-23 15:40:00,57.5,51.7,29.90,North,355,3.0,3.0,81,0.00,,,0.04,0.00,VWS V14.01,2013-05-23 19:40:00,
2013-05-23 15:41:00,57.6,51.5,29.90,NNW,341,7.0,7.0,80,0.00,,,0.04,0.00,VWS V14.01,2013-05-23 19:41:00,
2013-05-23 15:42:00,57.6,51.5,29.90,NNE,32,5.0,7.0,80,0.00,,,0.04,0.00,VWS V14.01,2013-05-23 19:42:00,
2013-05-23 15:43:00,57.6,51.5,29.90,NE,52,6.0,8.0,80,0.00,,,0.04,0.00,VWS V14.01,2013-05-23 19:43:00,
2013-05-23 15:44:00,57.6,51.1,29.90,NNE,18,5.0,8.0,79,0.00,,,0.04,0.00,VWS V14.01,2013-05-23 19:44:00,
2013-05-23 15:45:00,57.5,51.0,29.90,NE,51,2.0,11.0,79,0.00,,,0.04,0.00,VWS V14.01,2013-05-23 19:45:00,
2013-05-23 15:46:00,57.4,51.0,29.90,NNE,22,4.0,10.0,79,0.00,,,0.04,0.00,VWS V14.01,2013-05-23 19:46:00,
2013-05-23 15:47:00,57.3,50.8,29.90,North,355,4.0,6.0,79,0.00,,,0.04,0.00,VWS V14.01,2013-05-23 19:47:00,
2013-05-23 15:48:00,57.3,51.2,29.90,North,360,6.0,6.0,80,0.00,,,0.04,0.00,VWS V14.01,2013-05-23 19:48:00,
2013-05-23 15:49:00,57.2,51.1,29.90,NNE,31,6.0,7.0,80,0.00,,,0.04,0.00,VWS V14.01,2013-05-23 19:49:00,
2013-05-23 15:50:00,57.2,51.1,29.90,North,5,10.0,11.0,80,0.00,,,0.04,0.00,VWS V14.01,2013-05-23 19:50:00,
2013-05-23 15:51:00,56.9,50.5,29.91,NE,39,5.0,15.0,79,0.00,,,0.04,0.00,VWS V14.01,2013-05-23 19:51:00,
2013-05-23 15:52:00,56.9,50.5,29.90,NNE,25,8.0,9.0,79,0.00,,,0.04,0.00,VWS V14.01,2013-05-23 19:52:00,
2013-05-23 15:53:00,56.8,50.7,29.90,NNE,15,5.0,11.0,80,0.00,,,0.04,0.00,VWS V14.01,2013-05-23 19:53:00,
2013-05-23 15:54:00,56.7,50.6,29.90,NNE,26,4.0,4.0,80,0.00,,,0.04,0.00,VWS V14.01,2013-05-23 19:54:00,
2013-05-23 15:55:00,56.6,50.8,29.91,NNE,24,3.0,5.0,81,0.00,,,0.04,0.00,VWS V14.01,2013-05-23 19:55:00,
2013-05-23 15:56:00,56.6,50.8,29.91,North,355,4.0,10.0,81,0.00,,,0.04,0.00,VWS V14.01,2013-05-23 19:56:00,
2013-05-23 15:57:00,56.6,50.8,29.91,North,350,9.0,9.0,81,0.00,,,0.04,0.00,VWS V14.01,2013-05-23 19:57:00,
2013-05-23 15:58:00,56.5,50.4,29.91,NNE,29,9.0,10.0,80,0.00,,,0.04,0.00,VWS V14.01,2013-05-23 19:58:00,
2013-05-23 15:59:00,56.3,50.2,29.91,NE,46,6.0,6.0,80,0.00,,,0.04,0.00,VWS V14.01,2013-05-23 19:59:00,
2013-05-23 16:00:00,56.2,50.5,29.91,NE,43,6.0,8.0,81,0.00,,,0.04,0.00,VWS V14.01,2013-05-23 20:00:00,
2013-05-23 16:02:00,56.1,50.4,29.91,NNE,14,5.0,10.0,81,0.00,,,0.04,0.00,VWS V14.01,2013-05-23 20:02:00,
2013-05-23 16:03:00,56.0,50.3,29.91,North,11,4.0,4.0,81,0.00,,,0.04,0.00,VWS V14.01,2013-05-23 20:03:00,
2013-05-23 16:04:00,56.0,50.3,29.91,NNE,26,8.0,10.0,81,0.00,,,0.04,0.00,VWS V14.01,2013-05-23 20:04:00,
2013-05-23 16:05:00,55.9,50.2,29.91,North,5,3.0,8.0,81,0.00,,,0.04,0.00,VWS V14.01,2013-05-23 20:05:00,
2013-05-23 16:07:00,55.9,50.5,29.91,NNW,338,5.0,10.0,82,0.00,,,0.04,0.00,VWS V14.01,2013-05-23 20:07:00,
2013-05-23 16:08:00,55.7,50.0,29.91,NE,56,7.0,14.0,81,0.00,,,0.04,0.00,VWS V14.01,2013-05-23 20:08:00,
2013-05-23 16:09:00,55.7,50.3,29.91,NNW,338,6.0,10.0,82,0.00,,,0.04,0.00,VWS V14.01,2013-05-23 20:09:00,
2013-05-23 16:10:00,55.6,50.2,29.92,North,360,4.0,7.0,82,0.00,,,0.04,0.00,VWS V14.01,2013-05-23 20:10:00,
2013-05-23 16:12:00,55.5,50.1,29.92,NW,324,4.0,15.0,82,0.00,,,0.04,0.00,VWS V14.01,2013-05-23 20:12:00,
2013-05-23 16:13:00,55.5,50.1,29.92,NNE,31,2.0,13.0,82,0.00,,,0.04,0.00,VWS V14.01,2013-05-23 20:13:00,
2013-05-23 16:15:00,55.4,50.0,29.92,North,355,5.0,7.0,82,0.00,,,0.04,0.00,VWS V14.01,2013-05-23 20:15:00,
2013-05-23 16:16:00,55.4,50.0,29.92,NE,43,5.0,7.0,82,0.00,,,0.04,0.00,VWS V14.01,2013-05-23 20:16:00,
2013-05-23 16:17:00,55.3,49.9,29.92,NNE,29,3.0,11.0,82,0.00,,,0.04,0.00,VWS V14.01,2013-05-23 20:17:00,
2013-05-23 16:18:00,55.3,49.9,29.92,NNE,15,3.0,12.0,82,0.00,,,0.04,0.00,VWS V14.01,2013-05-23 20:18:00,
2013-05-23 16:20:00,55.2,50.1,29.92,NNE,32,3.0,7.0,83,0.00,,,0.04,0.00,VWS V14.01,2013-05-23 20:20:00,
2013-05-23 16:21:00,55.2,50.1,29.92,NNE,33,5.0,13.0,83,0.00,,,0.04,0.00,VWS V14.01,2013-05-23 20:21:00,
2013-05-23 16:22:00,55.2,50.1,29.92,ENE,59,8.0,8.0,83,0.00,,,0.04,0.00,VWS V14.01,2013-05-23 20:22:00,
2013-05-23 16:23:00,55.2,49.8,29.92,NE,39,1.0,10.0,82,0.00,,,0.04,0.00,VWS V14.01,2013-05-23 20:23:00,
2013-05-23 16:25:00,55.1,50.0,29.92,NNE,13,4.0,6.0,83,0.00,,,0.04,0.00,VWS V14.01,2013-05-23 20:25:00,
2013-05-23 16:26:00,55.1,50.0,29.92,North,5,4.0,7.0,83,0.00,,,0.04,0.00,VWS V14.01,2013-05-23 20:26:00,
2013-05-23 16:27:00,55.0,49.9,29.92,NNE,26,3.0,5.0,83,0.00,,,0.04,0.00,VWS V14.01,2013-05-23 20:27:00,
2013-05-23 16:28:00,55.0,49.9,29.92,NNW,342,3.0,4.0,83,0.00,,,0.04,0.00,VWS V14.01,2013-05-23 20:28:00,
2013-05-23 16:30:00,55.0,49.9,29.93,NNE,28,4.0,7.0,83,0.00,,,0.04,0.00,VWS V14.01,2013-05-23 20:30:00,
2013-05-23 16:31:00,55.0,49.9,29.93,NE,51,2.0,7.0,83,0.00,,,0.04,0.00,VWS V14.01,2013-05-23 20:31:00,
2013-05-23 16:32:00,55.0,49.9,29.93,NNE,31,2.0,8.0,83,0.00,,,0.04,0.00,VWS V14.01,2013-05-23 20:32:00,
2013-05-23 16:33:00,55.0,49.9,29.93,NNE,31,2.0,2.0,83,0.00,,,0.04,0.00,VWS V14.01,2013-05-23 20:33:00,
2013-05-23 16:35:00,55.0,49.9,29.93,NE,40,4.0,6.0,83,0.00,,,0.04,0.00,VWS V14.01,2013-05-23 20:35:00,
2013-05-23 16:36:00,55.0,49.9,29.93,ENE,60,8.0,8.0,83,0.00,,,0.04,0.00,VWS V14.01,2013-05-23 20:36:00,
2013-05-23 16:37:00,55.0,49.9,29.92,NE,53,5.0,8.0,83,0.00,,,0.04,0.00,VWS V14.01,2013-05-23 20:37:00,
2013-05-23 16:38:00,55.0,49.9,29.92,NE,44,3.0,7.0,83,0.00,,,0.04,0.00,VWS V14.01,2013-05-23 20:38:00,
2013-05-23 16:40:00,54.9,50.2,29.92,NE,36,4.0,4.0,84,0.00,,,0.04,0.00,VWS V14.01,2013-05-23 20:40:00,
2013-05-23 16:41:00,54.9,50.2,29.92,NE,36,3.0,4.0,84,0.00,,,0.04,0.00,VWS V14.01,2013-05-23 20:41:00,
2013-05-23 16:42:00,55.0,50.3,29.92,NE,36,6.0,6.0,84,0.00,,,0.04,0.00,VWS V14.01,2013-05-23 20:42:00,
2013-05-23 16:43:00,55.0,49.9,29.92,East,96,6.0,7.0,83,0.00,,,0.04,0.00,VWS V14.01,2013-05-23 20:43:00,
2013-05-23 16:45:00,54.9,49.8,29.93,NE,44,9.0,11.0,83,0.00,,,0.04,0.00,VWS V14.01,2013-05-23 20:45:00,
2013-05-23 16:46:00,54.9,49.8,29.93,NE,38,4.0,4.0,83,0.00,,,0.04,0.00,VWS V14.01,2013-05-23 20:46:00,
2013-05-23 16:47:00,54.8,49.7,29.93,North,5,5.0,8.0,83,0.00,,,0.04,0.00,VWS V14.01,2013-05-23 20:47:00,
2013-05-23 16:48:00,54.8,49.7,29.93,NE,44,9.0,11.0,83,0.00,,,0.04,0.00,VWS V14.01,2013-05-23 20:48:00,
2013-05-23 16:50:00,54.7,49.7,29.93,NE,35,14.0,15.0,83,0.00,,,0.04,0.00,VWS V14.01,2013-05-23 20:50:00,
2013-05-23 16:51:00,54.7,49.7,29.93,NNE,29,11.0,12.0,83,0.00,,,0.04,0.00,VWS V14.01,2013-05-23 20:51:00,
2013-05-23 16:52:00,54.7,49.7,29.93,NNE,30,4.0,10.0,83,0.00,,,0.04,0.00,VWS V14.01,2013-05-23 20:52:00,
2013-05-23 16:53:00,54.7,49.7,29.93,ENE,63,5.0,5.0,83,0.00,,,0.04,0.00,VWS V14.01,2013-05-23 20:53:00,
2013-05-23 16:56:00,54.8,50.1,29.93,NE,41,3.0,6.0,84,0.00,,,0.04,0.00,VWS V14.01,2013-05-23 20:56:00,
2013-05-23 16:57:00,54.8,50.1,29.93,NNE,29,4.0,4.0,84,0.00,,,0.04,0.00,VWS V14.01,2013-05-23 20:57:00,
2013-05-23 16:58:00,54.8,50.1,29.93,NE,37,7.0,7.0,84,0.00,,,0.04,0.00,VWS V14.01,2013-05-23 20:58:00,
2013-05-23 17:01:00,54.8,50.1,29.93,NE,34,2.0,11.0,84,0.00,,,0.04,0.00,VWS V14.01,2013-05-23 21:01:00,
2013-05-23 17:02:00,54.8,50.1,29.93,North,11,3.0,6.0,84,0.00,,,0.04,0.00,VWS V14.01,2013-05-23 21:02:00,
2013-05-23 17:03:00,54.8,50.1,29.93,NE,45,0.0,4.0,84,0.00,,,0.04,0.00,VWS V14.01,2013-05-23 21:03:00,
2013-05-23 17:06:00,54.8,50.1,29.93,NE,34,2.0,5.0,84,0.00,,,0.04,0.00,VWS V14.01,2013-05-23 21:06:00,
2013-05-23 17:07:00,54.8,50.1,29.93,NE,34,2.0,4.0,84,0.00,,,0.04,0.00,VWS V14.01,2013-05-23 21:07:00,
2013-05-23 17:08:00,54.9,50.5,29.94,NNE,31,4.0,6.0,85,0.00,,,0.04,0.00,VWS V14.01,2013-05-23 21:08:00,
2013-05-23 17:11:00,54.9,50.2,29.94,NNE,12,2.0,3.0,84,0.00,,,0.04,0.00,VWS V14.01,2013-05-23 21:11:00,
2013-05-23 17:12:00,54.9,50.2,29.94,NNE,20,5.0,5.0,84,0.00,,,0.04,0.00,VWS V14.01,2013-05-23 21:12:00,
2013-05-23 17:13:00,54.9,50.2,29.94,NE,51,7.0,11.0,84,0.00,,,0.04,0.00,VWS V14.01,2013-05-23 21:13:00,
2013-05-23 17:14:00,55.0,50.3,29.94,ENE,69,3.0,11.0,84,0.00,,,0.04,0.00,VWS V14.01,2013-05-23 21:14:00,
2013-05-23 17:16:00,54.9,50.2,29.94,NNE,20,7.0,7.0,84,0.00,,,0.04,0.00,VWS V14.01,2013-05-23 21:16:00,
2013-05-23 17:17:00,54.8,50.1,29.94,NNE,32,3.0,7.0,84,0.00,,,0.04,0.00,VWS V14.01,2013-05-23 21:17:00,
2013-05-23 17:18:00,54.8,50.4,29.94,NNE,32,0.0,1.0,85,0.00,,,0.04,0.00,VWS V14.01,2013-05-23 21:18:00,
2013-05-23 17:19:00,54.8,50.4,29.94,NNE,32,0.0,1.0,85,0.00,,,0.04,0.00,VWS V14.01,2013-05-23 21:19:00,
2013-05-23 17:21:00,54.9,50.5,29.95,East,85,6.0,6.0,85,0.00,,,0.04,0.00,VWS V14.01,2013-05-23 21:21:00,
2013-05-23 17:22:00,54.8,50.4,29.95,NNE,31,5.0,7.0,85,0.00,,,0.04,0.00,VWS V14.01,2013-05-23 21:22:00,
2013-05-23 17:23:00,54.8,50.1,29.95,NNE,24,3.0,8.0,84,0.00,,,0.04,0.00,VWS V14.01,2013-05-23 21:23:00,
2013-05-23 17:24:00,54.8,50.1,29.95,NNE,22,3.0,8.0,84,0.00,,,0.04,0.00,VWS V14.01,2013-05-23 21:24:00,
2013-05-23 17:26:00,54.7,50.3,29.95,North,5,0.0,0.0,85,0.00,,,0.04,0.00,VWS V14.01,2013-05-23 21:26:00,
2013-05-23 17:27:00,54.7,50.3,29.94,North,5,0.0,1.0,85,0.00,,,0.04,0.00,VWS V14.01,2013-05-23 21:27:00,
2013-05-23 17:28:00,54.6,50.2,29.94,NNW,340,7.0,7.0,85,0.00,,,0.04,0.00,VWS V14.01,2013-05-23 21:28:00,
2013-05-23 17:29:00,54.6,50.2,29.94,North,350,3.0,7.0,85,0.00,,,0.04,0.00,VWS V14.01,2013-05-23 21:29:00,
2013-05-23 17:31:00,54.6,50.2,29.95,North,355,3.0,3.0,85,0.00,,,0.04,0.00,VWS V14.01,2013-05-23 21:31:00,
2013-05-23 17:32:00,54.5,50.1,29.95,NE,53,5.0,6.0,85,0.00,,,0.04,0.00,VWS V14.01,2013-05-23 21:32:00,
2013-05-23 17:33:00,54.5,50.1,29.95,NNE,32,1.0,4.0,85,0.00,,,0.04,0.00,VWS V14.01,2013-05-23 21:33:00,
2013-05-23 17:34:00,54.5,50.1,29.95,NNE,26,1.0,4.0,85,0.00,,,0.04,0.00,VWS V14.01,2013-05-23 21:34:00,
2013-05-23 17:36:00,54.5,50.4,29.95,NNE,28,6.0,7.0,86,0.00,,,0.04,0.00,VWS V14.01,2013-05-23 21:36:00,
2013-05-23 17:37:00,54.5,50.4,29.95,NNE,23,4.0,6.0,86,0.00,,,0.04,0.00,VWS V14.01,2013-05-23 21:37:00,
2013-05-23 17:39:00,54.4,50.3,29.95,North,355,8.0,9.0,86,0.00,,,0.04,0.00,VWS V14.01,2013-05-23 21:39:00,
2013-05-23 17:41:00,54.3,50.2,29.95,NNE,21,4.0,5.0,86,0.00,,,0.04,0.00,VWS V14.01,2013-05-23 21:41:00,
2013-05-23 17:42:00,54.2,50.4,29.95,NNW,334,7.0,9.0,87,0.00,,,0.04,0.00,VWS V14.01,2013-05-23 21:42:00,
2013-05-23 17:43:00,54.2,50.4,29.95,NNW,346,8.0,10.0,87,0.00,,,0.04,0.00,VWS V14.01,2013-05-23 21:43:00,
2013-05-23 17:44:00,54.1,50.3,29.95,NE,39,3.0,9.0,87,0.00,,,0.04,0.00,VWS V14.01,2013-05-23 21:44:00,
2013-05-23 17:46:00,54.0,50.2,29.96,NE,53,3.0,7.0,87,0.00,,,0.04,0.00,VWS V14.01,2013-05-23 21:46:00,
2013-05-23 17:47:00,53.9,50.1,29.96,NNE,28,4.0,8.0,87,0.00,,,0.04,0.00,VWS V14.01,2013-05-23 21:47:00,
2013-05-23 17:48:00,53.9,50.1,29.96,NE,47,4.0,8.0,87,0.00,,,0.04,0.00,VWS V14.01,2013-05-23 21:48:00,
2013-05-23 17:49:00,53.8,50.0,29.96,NE,38,9.0,15.0,87,0.00,,,0.04,0.00,VWS V14.01,2013-05-23 21:49:00,
2013-05-23 17:51:00,53.7,50.2,29.96,NNW,347,4.0,4.0,88,0.00,,,0.04,0.00,VWS V14.01,2013-05-23 21:51:00,
2013-05-23 17:52:00,53.7,50.2,29.96,NE,47,1.0,2.0,88,0.00,,,0.04,0.00,VWS V14.01,2013-05-23 21:52:00,
2013-05-23 17:53:00,53.7,50.2,29.96,NE,43,1.0,3.0,88,0.00,,,0.04,0.00,VWS V14.01,2013-05-23 21:53:00,
2013-05-23 17:54:00,53.7,50.5,29.96,NE,39,2.0,6.0,89,0.00,,,0.04,0.00,VWS V14.01,2013-05-23 21:54:00,
2013-05-23 17:56:00,53.7,50.5,29.96,NNE,24,2.0,4.0,89,0.00,,,0.04,0.00,VWS V14.01,2013-05-23 21:56:00,
2013-05-23 17:57:00,53.6,50.4,29.96,North,9,7.0,12.0,89,0.00,,,0.04,0.00,VWS V14.01,2013-05-23 21:57:00,
2013-05-23 17:58:00,53.6,50.4,29.96,North,9,3.0,12.0,89,0.00,,,0.04,0.00,VWS V14.01,2013-05-23 21:58:00,
2013-05-23 17:59:00,53.5,50.3,29.96,NNE,20,2.0,10.0,89,0.00,,,0.04,0.00,VWS V14.01,2013-05-23 21:59:00,
2013-05-23 18:01:00,53.4,50.2,29.96,NNE,19,4.0,4.0,89,0.00,,,0.04,0.00,VWS V14.01,2013-05-23 22:01:00,
2013-05-23 18:03:00,53.3,50.5,29.97,North,360,3.0,6.0,90,0.00,,,0.04,0.00,VWS V14.01,2013-05-23 22:03:00,
2013-05-23 18:04:00,53.2,50.3,29.96,NNE,15,0.0,4.0,90,0.00,,,0.04,0.00,VWS V14.01,2013-05-23 22:04:00,
2013-05-23 18:06:00,53.1,50.2,29.97,NE,44,3.0,7.0,90,0.00,,,0.04,0.00,VWS V14.01,2013-05-23 22:06:00,
2013-05-23 18:08:00,53.0,50.2,29.97,NE,35,1.0,1.0,90,0.00,,,0.04,0.00,VWS V14.01,2013-05-23 22:08:00,
2013-05-23 18:09:00,53.0,50.2,29.97,NE,39,1.0,2.0,90,0.00,,,0.04,0.00,VWS V14.01,2013-05-23 22:09:00,
2013-05-23 18:11:00,52.9,50.0,29.97,NNE,30,9.0,9.0,90,0.00,,,0.04,0.00,VWS V14.01,2013-05-23 22:11:00,
2013-05-23 18:13:00,52.8,50.0,29.97,NE,46,2.0,3.0,90,0.00,,,0.04,0.00,VWS V14.01,2013-05-23 22:13:00,
2013-05-23 18:14:00,52.8,50.0,29.97,NE,42,8.0,8.0,90,0.00,,,0.04,0.00,VWS V14.01,2013-05-23 22:14:00,
2013-05-23 18:16:00,52.7,50.2,29.97,NE,38,7.0,8.0,91,0.00,,,0.04,0.00,VWS V14.01,2013-05-23 22:16:00,
2013-05-23 18:18:00,52.6,49.8,29.97,NE,40,5.0,6.0,90,0.00,,,0.04,0.00,VWS V14.01,2013-05-23 22:18:00,
2013-05-23 18:19:00,52.5,49.7,29.97,NNE,24,6.0,7.0,90,0.00,,,0.04,0.00,VWS V14.01,2013-05-23 22:19:00,
2013-05-23 18:21:00,52.4,49.8,29.97,North,5,2.0,4.0,91,0.00,,,0.04,0.00,VWS V14.01,2013-05-23 22:21:00,
2013-05-23 18:23:00,52.4,49.8,29.97,NNE,22,2.0,3.0,91,0.00,,,0.04,0.00,VWS V14.01,2013-05-23 22:23:00,
2013-05-23 18:24:00,52.4,49.8,29.97,NE,42,6.0,9.0,91,0.00,,,0.04,0.00,VWS V14.01,2013-05-23 22:24:00,
2013-05-23 18:26:00,52.3,49.8,29.98,NE,46,5.0,7.0,91,0.00,,,0.04,0.00,VWS V14.01,2013-05-23 22:26:00,
2013-05-23 18:28:00,52.2,49.7,29.97,North,5,8.0,9.0,91,0.00,,,0.04,0.00,VWS V14.01,2013-05-23 22:28:00,
2013-05-23 18:29:00,52.2,49.7,29.97,NNE,30,4.0,6.0,91,0.00,,,0.04,0.00,VWS V14.01,2013-05-23 22:29:00,
2013-05-23 18:31:00,52.2,50.0,29.97,NE,38,3.0,4.0,92,0.00,,,0.04,0.00,VWS V14.01,2013-05-23 22:31:00,
2013-05-23 18:33:00,52.2,50.0,29.97,NNW,347,5.0,10.0,92,0.00,,,0.04,0.00,VWS V14.01,2013-05-23 22:33:00,
2013-05-23 18:34:00,52.1,49.8,29.97,North,360,4.0,5.0,92,0.00,,,0.04,0.00,VWS V14.01,2013-05-23 22:34:00,
2013-05-23 18:36:00,52.1,49.8,29.97,ENE,60,7.0,7.0,92,0.00,,,0.04,0.00,VWS V14.01,2013-05-23 22:36:00,
2013-05-23 18:38:00,52.0,49.8,29.97,North,10,5.0,12.0,92,0.00,,,0.04,0.00,VWS V14.01,2013-05-23 22:38:00,
2013-05-23 18:39:00,52.0,49.8,29.97,NNW,341,1.0,4.0,92,0.00,,,0.04,0.00,VWS V14.01,2013-05-23 22:39:00,
2013-05-23 18:41:00,51.9,49.7,29.98,NNE,22,5.0,9.0,92,0.00,,,0.04,0.00,VWS V14.01,2013-05-23 22:41:00,
2013-05-23 18:43:00,51.8,49.5,29.98,NNE,15,9.0,11.0,92,0.00,,,0.04,0.00,VWS V14.01,2013-05-23 22:43:00,
2013-05-23 18:44:00,51.7,49.5,29.98,North,355,6.0,11.0,92,0.00,,,0.04,0.00,VWS V14.01,2013-05-23 22:44:00,
2013-05-23 18:46:00,51.7,49.5,29.98,NE,51,7.0,7.0,92,0.00,,,0.04,0.00,VWS V14.01,2013-05-23 22:46:00,
2013-05-23 18:48:00,51.7,49.5,29.98,NE,40,10.0,10.0,92,0.00,,,0.04,0.00,VWS V14.01,2013-05-23 22:48:00,
2013-05-23 18:49:00,51.6,49.4,29.98,NNW,344,7.0,14.0,92,0.00,,,0.04,0.00,VWS V14.01,2013-05-23 22:49:00,
2013-05-23 18:51:00,51.5,49.3,29.98,NNE,31,1.0,8.0,92,0.00,,,0.04,0.00,VWS V14.01,2013-05-23 22:51:00,
2013-05-23 18:53:00,51.5,49.3,29.98,NNW,344,5.0,6.0,92,0.00,,,0.04,0.00,VWS V14.01,2013-05-23 22:53:00,
2013-05-23 18:54:00,51.5,49.5,29.98,NE,37,5.0,7.0,93,0.00,,,0.04,0.00,VWS V14.01,2013-05-23 22:54:00,
2013-05-23 18:56:00,51.4,49.5,29.98,NNE,24,2.0,6.0,93,0.00,,,0.04,0.00,VWS V14.01,2013-05-23 22:56:00,
2013-05-23 18:58:00,51.4,49.5,29.98,NNE,32,0.0,0.0,93,0.00,,,0.04,0.00,VWS V14.01,2013-05-23 22:58:00,
2013-05-23 18:59:00,51.5,49.5,29.99,NE,38,1.0,5.0,93,0.00,,,0.04,0.00,VWS V14.01,2013-05-23 22:59:00,
2013-05-23 19:01:00,51.5,49.5,29.99,NNE,24,5.0,6.0,93,0.00,,,0.04,0.00,VWS V14.01,2013-05-23 23:01:00,
2013-05-23 19:03:00,51.5,49.5,29.99,NNE,17,2.0,4.0,93,0.00,,,0.04,0.00,VWS V14.01,2013-05-23 23:03:00,
2013-05-23 19:04:00,51.5,49.5,29.99,NNE,23,5.0,5.0,93,0.00,,,0.04,0.00,VWS V14.01,2013-05-23 23:04:00,
2013-05-23 19:06:00,51.5,49.5,29.99,NE,43,6.0,6.0,93,0.00,,,0.04,0.00,VWS V14.01,2013-05-23 23:06:00,
2013-05-23 19:08:00,51.5,49.5,29.99,NNE,33,3.0,5.0,93,0.00,,,0.04,0.00,VWS V14.01,2013-05-23 23:08:00,
2013-05-23 19:09:00,51.5,49.5,29.99,NE,50,5.0,8.0,93,0.00,,,0.04,0.00,VWS V14.01,2013-05-23 23:09:00,
2013-05-23 19:11:00,51.5,49.5,29.99,NE,35,2.0,5.0,93,0.00,,,0.04,0.00,VWS V14.01,2013-05-23 23:11:00,
2013-05-23 19:13:00,51.6,49.7,29.99,NE,38,1.0,2.0,93,0.00,,,0.04,0.00,VWS V14.01,2013-05-23 23:13:00,
2013-05-23 19:14:00,51.6,49.7,29.99,NE,38,2.0,3.0,93,0.00,,,0.04,0.00,VWS V14.01,2013-05-23 23:14:00,
2013-05-23 19:16:00,51.7,50.0,29.99,NE,48,5.0,9.0,94,0.00,,,0.04,0.00,VWS V14.01,2013-05-23 23:16:00,
2013-05-23 19:18:00,51.7,49.8,30.00,NNE,28,1.0,8.0,93,0.00,,,0.04,0.00,VWS V14.01,2013-05-23 23:18:00,
2013-05-23 19:19:00,51.7,49.8,30.00,NNE,31,4.0,8.0,93,0.00,,,0.04,0.00,VWS V14.01,2013-05-23 23:19:00,
2013-05-23 19:20:00,51.7,49.8,30.00,NNE,12,2.0,6.0,93,0.00,,,0.04,0.00,VWS V14.01,2013-05-23 23:20:00,
2013-05-23 19:21:00,51.8,49.8,30.00,NNE,13,1.0,2.0,93,0.00,,,0.04,0.00,VWS V14.01,2013-05-23 23:21:00,
2013-05-23 19:24:00,51.9,49.9,30.00,NE,38,7.0,10.0,93,0.00,,,0.04,0.00,VWS V14.01,2013-05-23 23:24:00,
2013-05-23 19:25:00,51.9,49.9,30.00,NE,45,2.0,11.0,93,0.00,,,0.04,0.00,VWS V14.01,2013-05-23 23:25:00,
2013-05-23 19:27:00,52.0,49.8,30.00,NNE,32,1.0,3.0,92,0.00,,,0.04,0.00,VWS V14.01,2013-05-23 23:27:00,
2013-05-23 19:29:00,52.1,49.8,30.00,NNE,29,6.0,6.0,92,0.00,,,0.04,0.00,VWS V14.01,2013-05-23 23:29:00,
2013-05-23 19:30:00,52.1,49.8,30.00,ENE,74,2.0,5.0,92,0.00,,,0.04,0.00,VWS V14.01,2013-05-23 23:30:00,
2013-05-23 19:32:00,52.2,50.0,30.00,NE,56,4.0,6.0,92,0.00,,,0.04,0.00,VWS V14.01,2013-05-23 23:32:00,
2013-05-23 19:34:00,52.2,50.0,30.00,NE,44,4.0,5.0,92,0.00,,,0.04,0.00,VWS V14.01,2013-05-23 23:34:00,
2013-05-23 19:35:00,52.2,49.7,30.00,NE,40,4.0,10.0,91,0.00,,,0.04,0.00,VWS V14.01,2013-05-23 23:35:00,
2013-05-23 19:37:00,52.3,49.8,30.00,NNE,29,1.0,7.0,91,0.00,,,0.04,0.00,VWS V14.01,2013-05-23 23:37:00,
2013-05-23 19:39:00,52.3,49.8,30.01,NNE,32,2.0,6.0,91,0.00,,,0.04,0.00,VWS V14.01,2013-05-23 23:39:00,
2013-05-23 19:40:00,52.3,49.8,30.01,NNE,33,2.0,9.0,91,0.00,,,0.04,0.00,VWS V14.01,2013-05-23 23:40:00,
2013-05-23 19:42:00,52.4,49.8,30.01,NNE,33,1.0,2.0,91,0.00,,,0.04,0.00,VWS V14.01,2013-05-23 23:42:00,
2013-05-23 19:44:00,52.4,49.8,30.01,NNE,33,4.0,4.0,91,0.00,,,0.04,0.00,VWS V14.01,2013-05-23 23:44:00,
2013-05-23 19:45:00,52.4,49.8,30.01,NNE,33,0.0,4.0,91,0.00,,,0.04,0.00,VWS V14.01,2013-05-23 23:45:00,
2013-05-23 19:47:00,52.4,49.8,30.01,NNE,24,2.0,6.0,91,0.00,,,0.04,0.00,VWS V14.01,2013-05-23 23:47:00,
2013-05-23 19:49:00,52.5,50.0,30.02,NNE,26,1.0,3.0,91,0.00,,,0.04,0.00,VWS V14.01,2013-05-23 23:49:00,
2013-05-23 19:50:00,52.5,50.0,30.02,NE,38,0.0,0.0,91,0.00,,,0.04,0.00,VWS V14.01,2013-05-23 23:50:00,
2013-05-23 19:52:00,52.5,50.0,30.02,NE,43,0.0,2.0,91,0.00,,,0.04,0.00,VWS V14.01,2013-05-23 23:52:00,
2013-05-23 19:54:00,52.5,50.0,30.02,NNE,26,5.0,10.0,91,0.00,,,0.04,0.00,VWS V14.01,2013-05-23 23:54:00,
2013-05-23 19:55:00,52.4,49.8,30.02,NE,48,6.0,10.0,91,0.00,,,0.04,0.00,VWS V14.01,2013-05-23 23:55:00,
2013-05-23 19:57:00,52.4,50.2,30.02,NE,38,1.0,1.0,92,0.00,,,0.04,0.00,VWS V14.01,2013-05-23 23:57:00,
2013-05-23 19:59:00,52.4,50.2,30.02,NE,37,1.0,1.0,92,0.00,,,0.04,0.00,VWS V14.01,2013-05-23 23:59:00,
2013-05-23 20:00:00,52.4,50.2,30.02,NE,38,1.0,1.0,92,0.00,,,0.04,0.00,VWS V14.01,2013-05-24 00:00:00,
2013-05-23 20:02:00,52.4,50.4,30.02,NNE,26,0.0,0.0,93,0.00,,,0.04,0.00,VWS V14.01,2013-05-24 00:02:00,
2013-05-23 20:04:00,52.3,50.3,30.02,NNE,26,2.0,2.0,93,0.00,,,0.04,0.00,VWS V14.01,2013-05-24 00:04:00,
2013-05-23 20:05:00,52.3,50.3,30.02,NNE,28,0.0,2.0,93,0.00,,,0.04,0.00,VWS V14.01,2013-05-24 00:05:00,
2013-05-23 20:07:00,52.3,50.3,30.02,NE,42,4.0,4.0,93,0.00,,,0.04,0.00,VWS V14.01,2013-05-24 00:07:00,
2013-05-23 20:09:00,52.3,50.3,30.03,NE,51,4.0,9.0,93,0.00,,,0.04,0.00,VWS V14.01,2013-05-24 00:09:00,
2013-05-23 20:10:00,52.3,50.3,30.03,NE,40,3.0,5.0,93,0.00,,,0.04,0.00,VWS V14.01,2013-05-24 00:10:00,
2013-05-23 20:13:00,52.3,50.3,30.03,NNE,30,3.0,4.0,93,0.00,,,0.04,0.00,VWS V14.01,2013-05-24 00:13:00,
2013-05-23 20:14:00,52.3,50.3,30.03,NNE,15,3.0,8.0,93,0.00,,,0.04,0.00,VWS V14.01,2013-05-24 00:14:00,
2013-05-23 20:15:00,52.2,50.2,30.03,NNE,30,0.0,3.0,93,0.00,,,0.04,0.00,VWS V14.01,2013-05-24 00:15:00,
2013-05-23 20:18:00,52.2,50.2,30.03,NE,34,5.0,5.0,93,0.00,,,0.04,0.00,VWS V14.01,2013-05-24 00:18:00,
2013-05-23 20:19:00,52.2,50.0,30.03,NE,44,12.0,14.0,92,0.00,,,0.04,0.00,VWS V14.01,2013-05-24 00:19:00,
2013-05-23 20:20:00,52.2,50.0,30.03,NE,51,3.0,5.0,92,0.00,,,0.04,0.00,VWS V14.01,2013-05-24 00:20:00,
2013-05-23 20:23:00,52.2,50.0,30.03,NE,41,8.0,8.0,92,0.00,,,0.04,0.00,VWS V14.01,2013-05-24 00:23:00,
2013-05-23 20:24:00,52.2,50.0,30.03,NNE,19,3.0,3.0,92,0.00,,,0.04,0.00,VWS V14.01,2013-05-24 00:24:00,
2013-05-23 20:25:00,52.2,50.0,30.04,NNE,33,5.0,5.0,92,0.00,,,0.04,0.00,VWS V14.01,2013-05-24 00:25:00,
2013-05-23 20:28:00,52.3,50.0,30.04,NNE,18,3.0,4.0,92,0.00,,,0.04,0.00,VWS V14.01,2013-05-24 00:28:00,
2013-05-23 20:29:00,52.3,50.0,30.04,NE,35,5.0,6.0,92,0.00,,,0.04,0.00,VWS V14.01,2013-05-24 00:29:00,
2013-05-23 20:30:00,52.3,50.0,30.03,NE,36,2.0,6.0,92,0.00,,,0.04,0.00,VWS V14.01,2013-05-24 00:30:00,
2013-05-23 20:33:00,52.3,50.0,30.04,NNE,28,1.0,3.0,92,0.00,,,0.04,0.00,VWS V14.01,2013-05-24 00:33:00,
2013-05-23 20:34:00,52.3,50.0,30.04,NNE,17,5.0,7.0,92,0.00,,,0.04,0.00,VWS V14.01,2013-05-24 00:34:00,
2013-05-23 20:35:00,52.3,50.0,30.04,NNE,17,0.0,7.0,92,0.00,,,0.04,0.00,VWS V14.01,2013-05-24 00:35:00,
2013-05-23 20:38:00,52.3,49.8,30.04,NE,35,5.0,5.0,91,0.00,,,0.04,0.00,VWS V14.01,2013-05-24 00:38:00,
2013-05-23 20:39:00,52.3,49.8,30.04,NE,54,1.0,5.0,91,0.00,,,0.04,0.00,VWS V14.01,2013-05-24 00:39:00,
2013-05-23 20:40:00,52.3,49.8,30.04,NE,51,2.0,5.0,91,0.00,,,0.04,0.00,VWS V14.01,2013-05-24 00:40:00,
2013-05-23 20:41:00,52.3,49.8,30.04,NNE,32,5.0,5.0,91,0.00,,,0.04,0.00,VWS V14.01,2013-05-24 00:41:00,
2013-05-23 20:43:00,52.3,49.8,30.04,NE,42,1.0,4.0,91,0.00,,,0.04,0.00,VWS V14.01,2013-05-24 00:43:00,
2013-05-23 20:44:00,52.3,49.8,30.04,NE,42,0.0,1.0,91,0.00,,,0.04,0.00,VWS V14.01,2013-05-24 00:44:00,
2013-05-23 20:45:00,52.3,49.8,30.04,NE,42,0.0,1.0,91,0.00,,,0.04,0.00,VWS V14.01,2013-05-24 00:45:00,
2013-05-23 20:46:00,52.3,49.8,30.04,NE,42,0.0,0.0,91,0.00,,,0.04,0.00,VWS V14.01,2013-05-24 00:46:00,
2013-05-23 20:49:00,52.3,49.8,30.04,NNE,30,1.0,4.0,91,0.00,,,0.04,0.00,VWS V14.01,2013-05-24 00:49:00,
2013-05-23 20:50:00,52.3,49.8,30.04,NNW,342,8.0,8.0,91,0.00,,,0.04,0.00,VWS V14.01,2013-05-24 00:50:00,
2013-05-23 20:51:00,52.3,49.8,30.04,NNE,24,3.0,4.0,91,0.00,,,0.04,0.00,VWS V14.01,2013-05-24 00:51:00,
2013-05-23 20:54:00,52.2,49.7,30.05,NNE,33,6.0,9.0,91,0.00,,,0.04,0.00,VWS V14.01,2013-05-24 00:54:00,
2013-05-23 20:55:00,52.2,49.7,30.05,NNW,348,4.0,9.0,91,0.00,,,0.04,0.00,VWS V14.01,2013-05-24 00:55:00,
2013-05-23 20:56:00,52.1,49.6,30.05,NNW,348,7.0,7.0,91,0.00,,,0.04,0.00,VWS V14.01,2013-05-24 00:56:00,
2013-05-23 20:59:00,52.0,49.5,30.05,North,360,4.0,7.0,91,0.00,,,0.04,0.00,VWS V14.01,2013-05-24 00:59:00,
2013-05-23 21:00:00,51.9,49.4,30.05,NE,37,4.0,11.0,91,0.00,,,0.04,0.00,VWS V14.01,2013-05-24 01:00:00,
2013-05-23 21:01:00,51.8,49.3,30.05,NE,41,2.0,2.0,91,0.00,,,0.04,0.00,VWS V14.01,2013-05-24 01:01:00,
2013-05-23 21:04:00,51.8,49.3,30.05,NE,34,0.0,6.0,91,0.00,,,0.04,0.00,VWS V14.01,2013-05-24 01:04:00,
2013-05-23 21:05:00,51.8,49.3,30.05,NNE,21,9.0,10.0,91,0.00,,,0.04,0.00,VWS V14.01,2013-05-24 01:05:00,
2013-05-23 21:06:00,51.7,48.9,30.05,NE,40,3.0,6.0,90,0.00,,,0.04,0.00,VWS V14.01,2013-05-24 01:06:00,
2013-05-23 21:09:00,51.6,48.8,30.05,NE,34,6.0,7.0,90,0.00,,,0.04,0.00,VWS V14.01,2013-05-24 01:09:00,
2013-05-23 21:10:00,51.5,49.0,30.06,NE,53,5.0,5.0,91,0.00,,,0.04,0.00,VWS V14.01,2013-05-24 01:10:00,
2013-05-23 21:11:00,51.5,49.0,30.05,NE,36,5.0,5.0,91,0.00,,,0.04,0.00,VWS V14.01,2013-05-24 01:11:00,
2013-05-23 21:12:00,51.5,49.0,30.05,NNE,22,3.0,6.0,91,0.00,,,0.04,0.00,VWS V14.01,2013-05-24 01:12:00,
2013-05-23 21:14:00,51.5,49.0,30.05,NNE,30,1.0,3.0,91,0.00,,,0.04,0.00,VWS V14.01,2013-05-24 01:14:00,
2013-05-23 21:15:00,51.4,48.9,30.06,NE,38,4.0,6.0,91,0.00,,,0.04,0.00,VWS V14.01,2013-05-24 01:15:00,
2013-05-23 21:16:00,51.4,48.9,30.06,NE,40,9.0,12.0,91,0.00,,,0.04,0.00,VWS V14.01,2013-05-24 01:16:00,
2013-05-23 21:17:00,51.4,48.9,30.06,NNE,25,6.0,12.0,91,0.00,,,0.04,0.00,VWS V14.01,2013-05-24 01:17:00,
2013-05-23 21:19:00,51.3,48.5,30.06,ENE,57,4.0,6.0,90,0.00,,,0.04,0.00,VWS V14.01,2013-05-24 01:19:00,
2013-05-23 21:20:00,51.3,48.5,30.06,NNE,28,8.0,8.0,90,0.00,,,0.04,0.00,VWS V14.01,2013-05-24 01:20:00,
2013-05-23 21:21:00,51.2,48.4,30.06,NNE,30,4.0,8.0,90,0.00,,,0.04,0.00,VWS V14.01,2013-05-24 01:21:00,
2013-05-23 21:22:00,51.2,48.4,30.06,NNE,30,3.0,3.0,90,0.00,,,0.04,0.00,VWS V14.01,2013-05-24 01:22:00,
2013-05-23 21:24:00,51.2,48.7,30.06,NNE,24,6.0,10.0,91,0.00,,,0.04,0.00,VWS V14.01,2013-05-24 01:24:00,
2013-05-23 21:25:00,51.2,48.7,30.06,NNE,29,2.0,2.0,91,0.00,,,0.04,0.00,VWS V14.01,2013-05-24 01:25:00,
2013-05-23 21:26:00,51.2,48.7,30.06,NNE,32,4.0,10.0,91,0.00,,,0.04,0.00,VWS V14.01,2013-05-24 01:26:00,
2013-05-23 21:27:00,51.2,48.7,30.06,NNE,32,2.0,2.0,91,0.00,,,0.04,0.00,VWS V14.01,2013-05-24 01:27:00,
2013-05-23 21:29:00,51.2,48.7,30.06,NNE,22,6.0,6.0,91,0.00,,,0.04,0.00,VWS V14.01,2013-05-24 01:29:00,
2013-05-23 21:30:00,51.2,48.7,30.06,North,5,5.0,7.0,91,0.00,,,0.04,0.00,VWS V14.01,2013-05-24 01:30:00,
2013-05-23 21:31:00,51.2,48.7,30.07,NE,51,5.0,7.0,91,0.00,,,0.04,0.00,VWS V14.01,2013-05-24 01:31:00,
2013-05-23 21:32:00,51.2,48.7,30.07,NE,51,0.0,1.0,91,0.00,,,0.04,0.00,VWS V14.01,2013-05-24 01:32:00,
2013-05-23 21:34:00,51.2,48.7,30.07,NNE,13,4.0,5.0,91,0.00,,,0.04,0.00,VWS V14.01,2013-05-24 01:34:00,
2013-05-23 21:35:00,51.2,48.7,30.07,NNE,14,4.0,4.0,91,0.00,,,0.04,0.00,VWS V14.01,2013-05-24 01:35:00,
2013-05-23 21:36:00,51.2,48.7,30.07,NE,35,8.0,8.0,91,0.00,,,0.04,0.00,VWS V14.01,2013-05-24 01:36:00,
2013-05-23 21:37:00,51.1,48.3,30.07,NE,51,4.0,5.0,90,0.00,,,0.04,0.00,VWS V14.01,2013-05-24 01:37:00,
2013-05-23 21:39:00,51.0,48.2,30.07,NE,50,1.0,7.0,90,0.00,,,0.04,0.00,VWS V14.01,2013-05-24 01:39:00,
2013-05-23 21:40:00,51.0,48.2,30.07,NNE,30,6.0,6.0,90,0.00,,,0.04,0.00,VWS V14.01,2013-05-24 01:40:00,
2013-05-23 21:41:00,51.0,48.2,30.07,NE,48,1.0,9.0,90,0.00,,,0.04,0.00,VWS V14.01,2013-05-24 01:41:00,
2013-05-23 21:42:00,51.0,48.2,30.07,NE,38,7.0,7.0,90,0.00,,,0.04,0.00,VWS V14.01,2013-05-24 01:42:00,
2013-05-23 21:45:00,50.9,48.1,30.07,NNE,26,5.0,9.0,90,0.00,,,0.04,0.00,VWS V14.01,2013-05-24 01:45:00,
2013-05-23 21:46:00,50.9,48.1,30.08,NE,53,2.0,3.0,90,0.00,,,0.04,0.00,VWS V14.01,2013-05-24 01:46:00,
2013-05-23 21:47:00,50.8,48.0,30.08,NNE,28,11.0,11.0,90,0.00,,,0.04,0.00,VWS V14.01,2013-05-24 01:47:00,
2013-05-23 21:50:00,50.8,47.7,30.08,NE,51,6.0,7.0,89,0.00,,,0.04,0.00,VWS V14.01,2013-05-24 01:50:00,
2013-05-23 21:51:00,50.8,47.7,30.08,NE,49,3.0,3.0,89,0.00,,,0.04,0.00,VWS V14.01,2013-05-24 01:51:00,
2013-05-23 21:52:00,50.7,47.6,30.08,NE,39,0.0,2.0,89,0.00,,,0.04,0.00,VWS V14.01,2013-05-24 01:52:00,
2013-05-23 21:55:00,50.7,47.9,30.08,ENE,78,0.0,1.0,90,0.00,,,0.04,0.00,VWS V14.01,2013-05-24 01:55:00,
2013-05-23 21:56:00,50.7,47.9,30.08,NE,40,2.0,5.0,90,0.00,,,0.04,0.00,VWS V14.01,2013-05-24 01:56:00,
2013-05-23 21:57:00,50.7,47.6,30.08,NE,41,0.0,5.0,89,0.00,,,0.04,0.00,VWS V14.01,2013-05-24 01:57:00,
2013-05-23 22:00:00,50.6,47.8,30.08,NNE,23,4.0,5.0,90,0.00,,,0.04,0.00,VWS V14.01,2013-05-24 02:00:00,
2013-05-23 22:01:00,50.6,47.8,30.09,NNE,31,5.0,5.0,90,0.00,,,0.04,0.00,VWS V14.01,2013-05-24 02:01:00,
2013-05-23 22:02:00,50.6,47.5,30.09,NE,40,5.0,5.0,89,0.00,,,0.04,0.00,VWS V14.01,2013-05-24 02:02:00,
2013-05-23 22:05:00,50.5,47.4,30.09,NE,38,2.0,3.0,89,0.00,,,0.04,0.00,VWS V14.01,2013-05-24 02:05:00,
2013-05-23 22:06:00,50.5,47.4,30.09,NE,42,2.0,5.0,89,0.00,,,0.04,0.00,VWS V14.01,2013-05-24 02:06:00,
2013-05-23 22:07:00,50.5,47.4,30.09,NE,36,0.0,3.0,89,0.00,,,0.04,0.00,VWS V14.01,2013-05-24 02:07:00,
2013-05-23 22:10:00,50.5,47.4,30.09,NE,50,7.0,7.0,89,0.00,,,0.04,0.00,VWS V14.01,2013-05-24 02:10:00,
2013-05-23 22:11:00,50.5,47.4,30.09,ENE,57,5.0,8.0,89,0.00,,,0.04,0.00,VWS V14.01,2013-05-24 02:11:00,
2013-05-23 22:12:00,50.4,47.3,30.09,NE,48,1.0,2.0,89,0.00,,,0.04,0.00,VWS V14.01,2013-05-24 02:12:00,
2013-05-23 22:15:00,50.4,47.3,30.09,NE,38,4.0,5.0,89,0.00,,,0.04,0.00,VWS V14.01,2013-05-24 02:15:00,
2013-05-23 22:16:00,50.4,47.3,30.09,NE,41,3.0,6.0,89,0.00,,,0.04,0.00,VWS V14.01,2013-05-24 02:16:00,
2013-05-23 22:17:00,50.3,47.2,30.09,North,9,0.0,3.0,89,0.00,,,0.04,0.00,VWS V14.01,2013-05-24 02:17:00,
2013-05-23 22:20:00,50.3,47.2,30.10,NNE,32,3.0,8.0,89,0.00,,,0.04,0.00,VWS V14.01,2013-05-24 02:20:00,
2013-05-23 22:21:00,50.3,47.2,30.10,NNE,32,0.0,0.0,89,0.00,,,0.04,0.00,VWS V14.01,2013-05-24 02:21:00,
2013-05-23 22:22:00,50.3,47.2,30.10,NE,36,4.0,4.0,89,0.00,,,0.04,0.00,VWS V14.01,2013-05-24 02:22:00,
2013-05-23 22:25:00,50.2,47.1,30.10,NE,47,0.0,3.0,89,0.00,,,0.04,0.00,VWS V14.01,2013-05-24 02:25:00,
2013-05-23 22:26:00,50.2,47.1,30.10,NE,47,1.0,3.0,89,0.00,,,0.04,0.00,VWS V14.01,2013-05-24 02:26:00,
2013-05-23 22:27:00,50.2,47.1,30.10,NE,44,5.0,9.0,89,0.00,,,0.04,0.00,VWS V14.01,2013-05-24 02:27:00,
2013-05-23 22:30:00,50.1,47.0,30.11,NE,49,4.0,7.0,89,0.00,,,0.04,0.00,VWS V14.01,2013-05-24 02:30:00,
2013-05-23 22:31:00,50.1,47.0,30.10,NNE,33,5.0,7.0,89,0.00,,,0.04,0.00,VWS V14.01,2013-05-24 02:31:00,
2013-05-23 22:32:00,50.1,47.0,30.11,NE,51,1.0,6.0,89,0.00,,,0.04,0.00,VWS V14.01,2013-05-24 02:32:00,
2013-05-23 22:36:00,50.0,46.9,30.11,NE,51,2.0,5.0,89,0.00,,,0.04,0.00,VWS V14.01,2013-05-24 02:36:00,
2013-05-23 22:37:00,50.0,46.9,30.11,NE,50,0.0,7.0,89,0.00,,,0.04,0.00,VWS V14.01,2013-05-24 02:37:00,
2013-05-23 22:38:00,50.0,46.9,30.11,NE,50,0.0,1.0,89,0.00,,,0.04,0.00,VWS V14.01,2013-05-24 02:38:00,
2013-05-23 22:41:00,50.0,46.9,30.11,NE,49,2.0,3.0,89,0.00,,,0.04,0.00,VWS V14.01,2013-05-24 02:41:00,
2013-05-23 22:43:00,50.0,46.9,30.11,North,355,0.0,4.0,89,0.00,,,0.04,0.00,VWS V14.01,2013-05-24 02:43:00,
2013-05-23 22:46:00,50.0,46.9,30.11,NNE,30,1.0,4.0,89,0.00,,,0.04,0.00,VWS V14.01,2013-05-24 02:46:00,
2013-05-23 22:47:00,49.9,46.8,30.11,NNE,30,1.0,4.0,89,0.00,,,0.04,0.00,VWS V14.01,2013-05-24 02:47:00,
2013-05-23 22:48:00,49.9,46.8,30.11,NNE,30,3.0,4.0,89,0.00,,,0.04,0.00,VWS V14.01,2013-05-24 02:48:00,
2013-05-23 22:51:00,49.9,46.8,30.11,NE,36,4.0,6.0,89,0.00,,,0.04,0.00,VWS V14.01,2013-05-24 02:51:00,
2013-05-23 22:52:00,49.8,46.7,30.11,NE,42,3.0,9.0,89,0.00,,,0.04,0.00,VWS V14.01,2013-05-24 02:52:00,
2013-05-23 22:53:00,49.8,46.7,30.11,NE,43,10.0,10.0,89,0.00,,,0.04,0.00,VWS V14.01,2013-05-24 02:53:00,
2013-05-23 22:56:00,49.7,46.6,30.12,NNE,32,1.0,5.0,89,0.00,,,0.04,0.00,VWS V14.01,2013-05-24 02:56:00,
2013-05-23 22:57:00,49.7,46.6,30.12,NNE,32,0.0,5.0,89,0.00,,,0.04,0.00,VWS V14.01,2013-05-24 02:57:00,
2013-05-23 22:58:00,49.7,46.6,30.11,ENE,74,0.0,1.0,89,0.00,,,0.04,0.00,VWS V14.01,2013-05-24 02:58:00,
2013-05-23 23:01:00,49.6,46.5,30.12,NNE,30,5.0,6.0,89,0.00,,,0.04,0.00,VWS V14.01,2013-05-24 03:01:00,
2013-05-23 23:02:00,49.6,46.5,30.12,NNE,31,0.0,6.0,89,0.00,,,0.04,0.00,VWS V14.01,2013-05-24 03:02:00,
2013-05-23 23:03:00,49.6,46.5,30.11,NNE,31,0.0,0.0,89,0.00,,,0.04,0.00,VWS V14.01,2013-05-24 03:03:00,
2013-05-23 23:06:00,49.6,46.5,30.12,NE,34,4.0,4.0,89,0.00,,,0.04,0.00,VWS V14.01,2013-05-24 03:06:00,
2013-05-23 23:07:00,49.6,46.5,30.12,NNE,18,7.0,7.0,89,0.00,,,0.04,0.00,VWS V14.01,2013-05-24 03:07:00,
2013-05-23 23:08:00,49.6,46.5,30.12,NE,46,2.0,3.0,89,0.00,,,0.04,0.00,VWS V14.01,2013-05-24 03:08:00,
2013-05-23 23:09:00,49.6,46.5,30.12,NE,46,2.0,2.0,89,0.00,,,0.04,0.00,VWS V14.01,2013-05-24 03:09:00,
2013-05-23 23:11:00,49.5,46.4,30.12,NE,46,3.0,3.0,89,0.00,,,0.04,0.00,VWS V14.01,2013-05-24 03:11:00,
2013-05-23 23:12:00,49.5,46.4,30.12,NE,46,1.0,1.0,89,0.00,,,0.04,0.00,VWS V14.01,2013-05-24 03:12:00,
2013-05-23 23:13:00,49.5,46.7,30.12,NE,46,0.0,2.0,90,0.00,,,0.04,0.00,VWS V14.01,2013-05-24 03:13:00,
2013-05-23 23:14:00,49.5,46.7,30.12,NE,41,2.0,2.0,90,0.00,,,0.04,0.00,VWS V14.01,2013-05-24 03:14:00,
2013-05-23 23:16:00,49.5,46.7,30.12,NE,34,0.0,1.0,90,0.00,,,0.04,0.00,VWS V14.01,2013-05-24 03:16:00,
2013-05-23 23:17:00,49.6,46.8,30.12,NE,34,1.0,1.0,90,0.00,,,0.04,0.00,VWS V14.01,2013-05-24 03:17:00,
2013-05-23 23:18:00,49.5,46.7,30.12,NE,34,0.0,2.0,90,0.00,,,0.04,0.00,VWS V14.01,2013-05-24 03:18:00,
2013-05-23 23:19:00,49.5,46.7,30.12,NNE,31,4.0,8.0,90,0.00,,,0.04,0.00,VWS V14.01,2013-05-24 03:19:00,
2013-05-23 23:22:00,49.5,46.4,30.12,NE,34,1.0,3.0,89,0.00,,,0.04,0.00,VWS V14.01,2013-05-24 03:22:00,
2013-05-23 23:23:00,49.5,46.7,30.12,NNE,30,0.0,4.0,90,0.00,,,0.04,0.00,VWS V14.01,2013-05-24 03:23:00,
2013-05-23 23:24:00,49.5,46.4,30.12,NNE,30,0.0,1.0,89,0.00,,,0.04,0.00,VWS V14.01,2013-05-24 03:24:00,
2013-05-23 23:27:00,49.5,46.7,30.12,NNE,15,0.0,6.0,90,0.00,,,0.04,0.00,VWS V14.01,2013-05-24 03:27:00,
2013-05-23 23:28:00,49.5,46.4,30.12,ENE,58,0.0,3.0,89,0.00,,,0.04,0.00,VWS V14.01,2013-05-24 03:28:00,
2013-05-23 23:29:00,49.5,46.4,30.12,NNE,24,6.0,8.0,89,0.00,,,0.04,0.00,VWS V14.01,2013-05-24 03:29:00,
2013-05-23 23:32:00,49.4,46.3,30.12,NE,51,4.0,6.0,89,0.00,,,0.04,0.00,VWS V14.01,2013-05-24 03:32:00,
2013-05-23 23:33:00,49.4,46.3,30.12,NE,40,3.0,6.0,89,0.00,,,0.04,0.00,VWS V14.01,2013-05-24 03:33:00,
2013-05-23 23:34:00,49.4,46.3,30.12,NNE,30,7.0,7.0,89,0.00,,,0.04,0.00,VWS V14.01,2013-05-24 03:34:00,
2013-05-23 23:37:00,49.4,46.6,30.12,ENE,67,0.0,1.0,90,0.00,,,0.04,0.00,VWS V14.01,2013-05-24 03:37:00,
2013-05-23 23:38:00,49.5,46.7,30.12,NE,34,0.0,2.0,90,0.00,,,0.04,0.00,VWS V14.01,2013-05-24 03:38:00,
2013-05-23 23:39:00,49.5,46.7,30.12,NE,49,0.0,3.0,90,0.00,,,0.04,0.00,VWS V14.01,2013-05-24 03:39:00,
2013-05-23 23:42:00,49.5,46.7,30.12,NNE,24,3.0,4.0,90,0.00,,,0.04,0.00,VWS V14.01,2013-05-24 03:42:00,
2013-05-23 23:43:00,49.4,46.3,30.13,NE,38,3.0,3.0,89,0.00,,,0.04,0.00,VWS V14.01,2013-05-24 03:43:00,
2013-05-23 23:44:00,49.5,46.4,30.13,NE,45,2.0,6.0,89,0.00,,,0.04,0.00,VWS V14.01,2013-05-24 03:44:00,
2013-05-23 23:47:00,49.5,46.4,30.13,NNE,30,1.0,1.0,89,0.00,,,0.04,0.00,VWS V14.01,2013-05-24 03:47:00,
2013-05-23 23:48:00,49.5,46.4,30.13,NNE,30,0.0,2.0,89,0.00,,,0.04,0.00,VWS V14.01,2013-05-24 03:48:00,
2013-05-23 23:49:00,49.5,46.4,30.13,NE,34,0.0,3.0,89,0.00,,,0.04,0.00,VWS V14.01,2013-05-24 03:49:00,
2013-05-23 23:52:00,49.5,46.4,30.13,NE,34,0.0,0.0,89,0.00,,,0.04,0.00,VWS V14.01,2013-05-24 03:52:00,
2013-05-23 23:53:00,49.5,46.4,30.13,NE,38,0.0,3.0,89,0.00,,,0.04,0.00,VWS V14.01,2013-05-24 03:53:00,
2013-05-23 23:54:00,49.5,46.4,30.12,NE,34,1.0,2.0,89,0.00,,,0.04,0.00,VWS V14.01,2013-05-24 03:54:00,
2013-05-23 23:57:00,49.5,46.4,30.12,NE,46,1.0,3.0,89,0.00,,,0.04,0.00,VWS V14.01,2013-05-24 03:57:00,
2013-05-23 23:58:00,49.5,46.4,30.12,ENE,77,0.0,1.0,89,0.00,,,0.04,0.00,VWS V14.01,2013-05-24 03:58:00,
2013-05-23 23:59:00,49.5,46.4,30.12,ENE,77,0.0,1.0,89,0.00,,,0.04,0.00,VWS V14.01,2013-05-24 03:59:00,